WA9SDJ-13 Weather Reports


time (UTC)temp
F
wind
direction
speed
knots
gust
knots
rain 1hr
in
rain 24hr
in
rain mn
in
humidity
%
barometer
mb
20260906104016 71 3 3.5 6.1 0.00 0.00 0.00 77 1014.3
20260906103916 71 27 2.6 6.1 0.00 0.00 0.00 77 1014.3
20260906103813 71 0 1.7 6.1 0.00 0.00 0.00 76 1014.1
20260906103713 71 28 1.7 6.1 0.00 0.00 0.00 76 1014.2
20260906103610 71 10 2.6 6.1 0.00 0.00 0.00 76 1014.2
20260906103510 71 31 4.3 6.1 0.00 0.00 0.00 76 1014.2
20260906103407 71 34 4.3 6.1 0.00 0.00 0.00 76 1014.2
20260906103306 71 6 4.3 6.1 0.00 0.00 0.00 76 1014.2
20260906103204 71 61 4.3 6.1 0.00 0.00 0.00 76 1014.1
20260906103104 71 0 2.6 6.1 0.00 0.00 0.00 75 1014.1
20260906103003 71 51 1.7 6.1 0.00 0.00 0.00 75 1014.1
20260906102902 71 78 2.6 6.1 0.00 0.00 0.00 75 1014.1
20260906102802 71 63 2.6 6.1 0.00 0.00 0.00 75 1014.2
20260906102702 71 25 2.6 8.7 0.00 0.00 0.00 75 1014.1
20260906102602 71 1 3.5 8.7 0.00 0.00 0.00 75 1014.2
20260906102502 71 68 3.5 8.7 0.00 0.00 0.00 74 1014.2
20260906102402 71 32 4.3 8.7 0.00 0.00 0.00 74 1014.1
20260906102305 71 21 4.3 8.7 0.00 0.00 0.00 74 1014.2
20260906102202 71 28 3.5 8.7 0.00 0.00 0.00 74 1014.2
20260906102103 71 20 3.5 8.7 0.00 0.00 0.00 74 1014.2
20260906102003 71 24 3.5 8.7 0.00 0.00 0.00 74 1014.2
20260906101902 71 4 3.5 8.7 0.00 0.00 0.00 74 1014.1
20260906101803 71 357 4.3 8.7 0.00 0.00 0.00 74 1014.1
20260906101702 72 31 3.5 5.2 0.00 0.00 0.00 74 1014.1
20260906101602 72 16 1.7 3.5 0.00 0.00 0.00 74 1014.1
20260906101503 72 48 1.7 3.5 0.00 0.00 0.00 74 1014.0
20260906101403 72 49 1.7 4.3 0.00 0.00 0.00 74 1014.1
20260906101303 72 34 0.9 4.3 0.00 0.00 0.00 74 1014.1
20260906101202 72 32 1.7 4.3 0.00 0.00 0.00 74 1014.1
20260906101103 72 31 1.7 4.3 0.00 0.00 0.00 74 1014.1
20260906101002 72 56 0.9 4.3 0.00 0.00 0.00 74 1014.1
20260906100902 72 48 1.7 6.1 0.00 0.00 0.00 74 1014.2
20260906100802 72 49 2.6 6.1 0.00 0.00 0.00 74 1014.2
20260906100702 72 44 2.6 6.1 0.00 0.00 0.00 73 1014.1
20260906100602 72 55 2.6 6.1 0.00 0.00 0.00 73 1014.2
20260906100503 72 69 2.6 6.1 0.00 0.00 0.00 73 1014.2
20260906100402 72 58 1.7 6.1 0.00 0.00 0.00 73 1014.1
20260906100303 72 58 1.7 6.1 0.00 0.00 0.00 73 1014.2
20260906100202 72 63 2.6 6.1 0.00 0.00 0.00 73 1014.2
20260906100002 72 52 2.6 6.1 0.00 0.00 0.00 73 1014.2
20260906095902 72 85 2.6 6.1 0.00 0.00 0.00 73 1014.2
20260906095802 72 59 2.6 6.1 0.00 0.00 0.00 73 1014.1
20260906095703 72 66 2.6 6.1 0.00 0.00 0.00 73 1014.1
20260906095602 72 58 3.5 6.1 0.00 0.00 0.00 73 1014.1
20260906095502 72 38 2.6 6.1 0.00 0.00 0.00 73 1014.1
20260906095402 72 45 2.6 6.1 0.00 0.00 0.00 73 1014.0
20260906095305 72 21 3.5 6.1 0.00 0.00 0.00 73 1014.0
20260906095202 72 21 2.6 6.1 0.00 0.00 0.00 73 1014.0
20260906095102 72 41 3.5 6.1 0.00 0.00 0.00 73 1014.0
20260906095003 72 65 3.5 6.1 0.00 0.00 0.00 72 1013.9
20260906094903 72 68 2.6 5.2 0.00 0.00 0.00 72 1013.9
20260906094802 72 38 2.6 6.1 0.00 0.00 0.00 72 1014.0
20260906094702 72 68 2.6 6.1 0.00 0.00 0.00 72 1014.0
20260906094602 72 66 1.7 6.1 0.00 0.00 0.00 72 1014.0
20260906094502 72 58 1.7 6.1 0.00 0.00 0.00 72 1014.0
20260906094403 72 38 1.7 6.1 0.00 0.00 0.00 72 1014.0
20260906094302 72 38 2.6 6.1 0.00 0.00 0.00 72 1013.9
20260906094203 72 28 2.6 6.1 0.00 0.00 0.00 72 1013.9
20260906094102 72 13 3.5 6.1 0.00 0.00 0.00 72 1013.9
20260906094001 72 10 3.5 6.1 0.00 0.00 0.00 72 1013.9
20260906093902 72 58 2.6 6.1 0.00 0.00 0.00 72 1013.9
20260906093802 72 323 2.6 5.2 0.00 0.00 0.00 72 1013.9
20260906093703 72 58 3.5 5.2 0.00 0.00 0.00 72 1013.9
20260906093602 72 44 2.6 5.2 0.00 0.00 0.00 72 1013.9
20260906093502 72 32 1.7 5.2 0.00 0.00 0.00 72 1013.8
20260906093401 72 42 3.5 5.2 0.00 0.00 0.00 72 1013.9
20260906093302 71 87 3.5 5.2 0.00 0.00 0.00 72 1013.9
20260906093202 71 3 3.5 5.2 0.00 0.00 0.00 72 1013.9
20260906093102 71 14 3.5 5.2 0.00 0.00 0.00 72 1014.0
20260906093002 71 358 3.5 5.2 0.00 0.00 0.00 72 1014.0
20260906092902 71 28 2.6 5.2 0.00 0.00 0.00 72 1013.9
20260906092802 71 58 2.6 5.2 0.00 0.00 0.00 72 1013.9
20260906092702 71 47 2.6 5.2 0.00 0.00 0.00 72 1014.0
20260906092603 71 49 3.5 5.2 0.00 0.00 0.00 72 1014.0
20260906092503 71 345 3.5 5.2 0.00 0.00 0.00 72 1014.0
20260906092402 71 21 1.7 6.1 0.00 0.00 0.00 72 1014.0
20260906092305 71 14 2.6 6.1 0.00 0.00 0.00 72 1014.0
20260906092202 71 0 2.6 6.1 0.00 0.00 0.00 72 1014.1
20260906092102 71 0 3.5 6.1 0.00 0.00 0.00 72 1014.0
20260906092002 71 13 2.6 6.1 0.00 0.00 0.00 72 1014.0
20260906091902 71 47 2.6 6.1 0.00 0.00 0.00 72 1014.0
20260906091802 71 16 3.5 6.1 0.00 0.00 0.00 72 1014.0
20260906091703 71 13 4.3 6.1 0.00 0.00 0.00 72 1014.0
20260906091601 71 0 4.3 6.1 0.00 0.00 0.00 72 1014.0
20260906091502 71 4 3.5 6.1 0.00 0.00 0.00 72 1014.0
20260906091402 71 56 2.6 7.8 0.00 0.00 0.00 72 1014.0
20260906091302 71 49 3.5 7.8 0.00 0.00 0.00 72 1014.0
20260906091203 71 7 3.5 7.8 0.00 0.00 0.00 72 1014.0
20260906091101 71 18 2.6 7.8 0.00 0.00 0.00 72 1014.0
20260906091002 71 0 2.6 7.8 0.00 0.00 0.00 72 1014.0
20260906090902 71 37 3.5 7.8 0.00 0.00 0.00 72 1014.0
20260906090802 71 0 3.5 7.8 0.00 0.00 0.00 72 1014.0
20260906090702 71 13 4.3 7.8 0.00 0.00 0.00 72 1013.9
20260906090602 71 344 3.5 7.8 0.00 0.00 0.00 72 1013.9
20260906090503 71 24 2.6 7.8 0.00 0.00 0.00 72 1014.0
20260906090403 71 31 1.7 5.2 0.00 0.00 0.00 72 1013.9
20260906090302 71 37 2.6 5.2 0.00 0.00 0.00 72 1013.9
20260906090202 71 1 2.6 5.2 0.00 0.00 0.00 72 1013.9
20260906090002 71 16 3.5 4.3 0.00 0.00 0.00 72 1014.0
20260906085902 71 1 2.6 4.3 0.00 0.00 0.00 72 1014.0
20260906085802 71 16 1.7 4.3 0.00 0.00 0.00 72 1013.8
20260906085702 71 21 2.6 4.3 0.00 0.00 0.00 72 1013.8
20260906085602 71 30 2.6 4.3 0.00 0.00 0.00 72 1013.8
20260906085503 71 14 2.6 4.3 0.00 0.00 0.00 72 1013.8
20260906085402 71 358 2.6 3.5 0.00 0.00 0.00 72 1013.7
20260906085306 71 16 1.7 5.2 0.00 0.00 0.00 72 1013.7
20260906085202 71 18 1.7 5.2 0.00 0.00 0.00 72 1013.8
20260906085102 71 18 1.7 5.2 0.00 0.00 0.00 72 1013.7
20260906085002 71 38 1.7 5.2 0.00 0.00 0.00 72 1013.7
20260906084903 71 38 1.7 5.2 0.00 0.00 0.00 72 1013.7
20260906084803 71 6 1.7 5.2 0.00 0.00 0.00 72 1013.7
20260906084701 71 51 1.7 5.2 0.00 0.00 0.00 72 1013.7
20260906084602 71 11 2.6 5.2 0.00 0.00 0.00 72 1013.7
20260906084502 71 1 2.6 5.2 0.00 0.00 0.00 72 1013.7
20260906084404 71 20 3.5 5.2 0.00 0.00 0.00 72 1013.7
20260906084301 71 14 2.6 4.3 0.00 0.00 0.00 72 1013.7
20260906084201 71 56 2.6 4.3 0.00 0.00 0.00 72 1013.7
20260906084102 71 18 2.6 4.3 0.00 0.00 0.00 72 1013.7
20260906084002 71 11 2.6 4.3 0.00 0.00 0.00 72 1013.6
20260906083903 71 21 1.7 4.3 0.00 0.00 0.00 72 1013.6
20260906083802 71 14 2.6 4.3 0.00 0.00 0.00 72 1013.6
20260906083702 71 17 2.6 5.2 0.00 0.00 0.00 72 1013.6
20260906083602 71 32 1.7 5.2 0.00 0.00 0.00 72 1013.6
20260906083503 71 34 1.7 5.2 0.00 0.00 0.00 72 1013.6
20260906083401 71 47 2.6 5.2 0.00 0.00 0.00 72 1013.6
20260906083302 71 16 1.7 5.2 0.00 0.00 0.00 72 1013.6
20260906083202 71 3 1.7 5.2 0.00 0.00 0.00 72 1013.6
20260906083102 71 13 1.7 5.2 0.00 0.00 0.00 72 1013.6
20260906083002 71 21 2.6 5.2 0.00 0.00 0.00 72 1013.7
20260906082901 72 14 2.6 5.2 0.00 0.00 0.00 72 1013.6
20260906082802 72 20 2.6 5.2 0.00 0.00 0.00 72 1013.6
20260906082702 72 7 1.7 4.3 0.00 0.00 0.00 72 1013.6
20260906082602 72 1 1.7 4.3 0.00 0.00 0.00 72 1013.6
20260906082502 72 25 1.7 4.3 0.00 0.00 0.00 72 1013.7
20260906082402 72 25 1.7 6.1 0.00 0.00 0.00 72 1013.6
20260906082305 72 42 2.6 6.1 0.00 0.00 0.00 72 1013.6
20260906082202 72 4 2.6 6.1 0.00 0.00 0.00 72 1013.6
20260906082102 72 25 1.7 6.1 0.00 0.00 0.00 72 1013.6
20260906082003 72 0 0.9 6.1 0.00 0.00 0.00 72 1013.6
20260906081903 72 0 1.7 6.1 0.00 0.00 0.00 72 1013.4
20260906081801 72 0 1.7 6.1 0.00 0.00 0.00 72 1013.6
20260906081702 72 6 1.7 6.1 0.00 0.00 0.00 72 1013.6
20260906081602 72 6 2.6 6.1 0.00 0.00 0.00 72 1013.6
20260906081503 72 1 3.5 6.1 0.00 0.00 0.00 72 1013.4
20260906081402 72 14 2.6 4.3 0.00 0.00 0.00 72 1013.4
20260906081302 72 11 1.7 4.3 0.00 0.00 0.00 72 1013.4
20260906081202 72 0 2.6 4.3 0.00 0.00 0.00 72 1013.6
20260906081103 72 10 3.5 4.3 0.00 0.00 0.00 72 1013.4
20260906081003 72 3 2.6 5.2 0.00 0.00 0.00 72 1013.4
20260906080902 72 1 1.7 6.1 0.00 0.00 0.00 72 1013.3
20260906080803 72 1 1.7 6.1 0.00 0.00 0.00 72 1013.4
20260906080702 72 348 1.7 6.1 0.00 0.00 0.00 72 1013.3
20260906080601 72 13 1.7 6.1 0.00 0.00 0.00 72 1013.4
20260906080502 72 7 0.9 6.1 0.00 0.00 0.00 72 1013.4
20260906080402 72 7 2.6 6.1 0.00 0.00 0.00 72 1013.3
20260906080301 72 3 3.5 6.1 0.00 0.00 0.00 72 1013.3
20260906080201 72 0 4.3 6.1 0.00 0.00 0.00 72 1013.2
20260906080003 72 7 3.5 6.1 0.00 0.00 0.00 72 1013.2
20260906075902 72 10 2.6 5.2 0.00 0.00 0.00 72 1013.3
20260906075803 72 10 3.5 5.2 0.00 0.00 0.00 72 1013.3
20260906075702 72 0 3.5 6.1 0.00 0.00 0.00 72 1013.3
20260906075602 72 14 2.6 6.1 0.00 0.00 0.00 72 1013.3
20260906075503 72 7 3.5 6.1 0.00 0.00 0.00 72 1013.3
20260906075402 72 31 3.5 6.1 0.00 0.00 0.00 72 1013.3
20260906075305 72 32 2.6 6.1 0.00 0.00 0.00 72 1013.3
20260906075202 72 30 2.6 6.1 0.00 0.00 0.00 72 1013.3
20260906075102 72 27 2.6 6.1 0.00 0.00 0.00 72 1013.3
20260906075002 72 1 3.5 6.1 0.00 0.00 0.00 72 1013.3
20260906074901 72 20 5.2 6.1 0.00 0.00 0.00 72 1013.3
20260906074801 72 1 4.3 6.1 0.00 0.00 0.00 72 1013.3
20260906074702 72 4 3.5 5.2 0.00 0.00 0.00 73 1013.3
20260906074602 72 24 3.5 5.2 0.00 0.00 0.00 73 1013.3
20260906074502 72 0 3.5 5.2 0.00 0.00 0.00 73 1013.3
20260906074403 72 351 1.7 5.2 0.00 0.00 0.00 73 1013.3
20260906074302 72 344 1.7 5.2 0.00 0.00 0.00 73 1013.3
20260906074202 71 343 3.5 5.2 0.00 0.00 0.00 73 1013.3
20260906074102 71 14 3.5 5.2 0.00 0.00 0.00 73 1013.4
20260906074003 71 0 2.6 4.3 0.00 0.00 0.00 73 1013.4
20260906073902 71 11 2.6 4.3 0.00 0.00 0.00 73 1013.3
20260906073802 71 4 2.6 4.3 0.00 0.00 0.00 73 1013.3
20260906073702 71 7 2.6 4.3 0.00 0.00 0.00 73 1013.3
20260906073602 71 7 2.6 4.3 0.00 0.00 0.00 73 1013.2
20260906073502 71 18 2.6 4.3 0.00 0.00 0.00 73 1013.3
20260906073403 71 18 2.6 4.3 0.00 0.00 0.00 73 1013.3
20260906073302 71 21 1.7 5.2 0.00 0.00 0.00 73 1013.3
20260906073202 71 7 1.7 5.2 0.00 0.00 0.00 73 1013.3
20260906073102 71 6 1.7 5.2 0.00 0.00 0.00 73 1013.3
20260906073002 71 17 2.6 5.2 0.00 0.00 0.00 73 1013.3
20260906072902 71 3 2.6 5.2 0.00 0.00 0.00 73 1013.3
20260906072802 71 358 2.6 5.2 0.00 0.00 0.00 73 1013.2
20260906072702 71 17 2.6 5.2 0.00 0.00 0.00 73 1013.2
20260906072602 71 18 1.7 5.2 0.00 0.00 0.00 73 1013.2
20260906072503 71 13 2.6 5.2 0.00 0.00 0.00 73 1013.2
20260906072402 71 11 3.5 5.2 0.00 0.00 0.00 73 1013.2
20260906072305 71 0 3.5 5.2 0.00 0.00 0.00 73 1013.2
20260906072203 71 0 3.5 6.1 0.00 0.00 0.00 73 1013.2
20260906072102 71 0 3.5 6.1 0.00 0.00 0.00 73 1013.2
20260906072001 71 0 4.3 6.1 0.00 0.00 0.00 73 1013.2
20260906071902 71 8 3.5 6.1 0.00 0.00 0.00 74 1013.2
20260906071802 71 8 3.5 6.1 0.00 0.00 0.00 74 1013.2
20260906071702 71 14 3.5 6.1 0.00 0.00 0.00 74 1013.2
20260906071602 72 21 2.6 6.1 0.00 0.00 0.00 74 1013.3
20260906071502 72 6 3.5 6.1 0.00 0.00 0.00 74 1013.3
20260906071402 71 25 4.3 6.1 0.00 0.00 0.00 74 1013.2
20260906071303 71 25 4.3 6.1 0.00 0.00 0.00 74 1013.3
20260906071201 71 10 3.5 6.1 0.00 0.00 0.00 74 1013.3
20260906071102 71 6 3.5 6.1 0.00 0.00 0.00 74 1013.3
20260906071002 72 11 3.5 5.2 0.00 0.00 0.00 74 1013.4
20260906070902 72 20 3.5 5.2 0.00 0.00 0.00 74 1013.3
20260906070801 72 0 3.5 5.2 0.00 0.00 0.00 74 1013.3
20260906070701 72 18 3.5 5.2 0.00 0.00 0.00 74 1013.3
20260906070602 72 1 3.5 5.2 0.00 0.00 0.00 74 1013.3
20260906070503 72 10 3.5 5.2 0.00 0.00 0.00 74 1013.3
20260906070402 72 6 3.5 6.1 0.00 0.00 0.00 74 1013.3
20260906070302 72 25 2.6 6.1 0.00 0.00 0.00 74 1013.3
20260906070202 72 3 3.5 6.1 0.00 0.00 0.00 74 1013.3
20260906070107 72 24 2.6 6.1 0.00 0.00 0.00 74 1013.3
20260906070002 72 13 2.6 6.1 0.00 0.00 0.00 74 1013.3
20260906065902 72 44 2.6 6.1 0.00 0.00 0.00 74 1013.3
20260906065802 72 20 2.6 6.1 0.00 0.00 0.00 74 1013.3
20260906065703 72 11 3.5 6.1 0.00 0.00 0.00 74 1013.3
20260906065603 72 13 3.5 6.1 0.00 0.00 0.00 74 1013.3
20260906065503 72 52 3.5 6.1 0.00 0.00 0.00 74 1013.4
20260906065403 72 0 2.6 5.2 0.00 0.00 0.00 74 1013.4
20260906065305 72 25 1.7 5.2 0.00 0.00 0.00 74 1013.4
20260906065202 72 27 1.7 5.2 0.00 0.00 0.00 74 1013.3
20260906065102 72 34 2.6 5.2 0.00 0.00 0.00 74 1013.3
20260906065003 72 27 3.5 5.2 0.00 0.00 0.00 74 1013.3
20260906064902 72 28 3.5 5.2 0.00 0.00 0.00 74 1013.4
20260906064802 72 0 2.6 4.3 0.00 0.00 0.00 74 1013.3
20260906064702 72 13 2.6 4.3 0.00 0.00 0.00 74 1013.3
20260906064602 72 21 1.7 4.3 0.00 0.00 0.00 74 1013.4
20260906064503 72 13 1.7 4.3 0.00 0.00 0.00 75 1013.4
20260906064402 72 10 2.6 4.3 0.00 0.00 0.00 74 1013.6
20260906064302 72 0 2.6 4.3 0.00 0.00 0.00 75 1013.4
20260906064202 72 0 2.6 4.3 0.00 0.00 0.00 75 1013.6
20260906064102 72 0 3.5 4.3 0.00 0.00 0.00 75 1013.7
20260906064003 72 18 3.5 4.3 0.00 0.00 0.00 75 1013.7
20260906063902 72 1 2.6 4.3 0.00 0.00 0.00 75 1013.7
20260906063802 72 0 1.7 3.5 0.00 0.00 0.00 75 1013.7
20260906063702 72 0 1.7 3.5 0.00 0.00 0.00 75 1013.7
20260906063602 72 0 1.7 3.5 0.00 0.00 0.00 75 1013.7
20260906063502 72 0 1.7 3.5 0.00 0.00 0.00 75 1013.7
20260906063402 72 0 1.7 3.5 0.00 0.00 0.00 75 1013.7
20260906063303 72 0 0.9 3.5 0.00 0.00 0.00 75 1013.7
20260906063202 72 0 0.9 3.5 0.00 0.00 0.00 75 1013.7
20260906063102 72 0 1.7 3.5 0.00 0.00 0.00 75 1013.6
20260906063002 72 0 1.7 3.5 0.00 0.00 0.00 75 1013.7
20260906062903 72 0 1.7 3.5 0.00 0.00 0.00 75 1013.6
20260906062803 72 354 1.7 3.5 0.00 0.00 0.00 75 1013.7
20260906062702 72 353 1.7 3.5 0.00 0.00 0.00 75 1013.6
20260906062602 72 353 0.9 3.5 0.00 0.00 0.00 75 1013.6
20260906062503 72 351 1.7 3.5 0.00 0.00 0.00 75 1013.6
20260906062403 72 351 1.7 3.5 0.00 0.00 0.00 76 1013.7
20260906062305 72 355 1.7 3.5 0.00 0.00 0.00 76 1013.6
20260906062202 72 355 0.9 3.5 0.00 0.00 0.00 76 1013.7
20260906062102 72 358 0.9 3.5 0.00 0.00 0.00 76 1013.7
20260906062003 72 0 0.9 3.5 0.00 0.00 0.00 76 1013.7
20260906061901 72 0 0.9 3.5 0.00 0.00 0.00 76 1013.7
20260906061802 72 358 0.9 3.5 0.00 0.00 0.00 76 1013.6
20260906061702 72 358 1.7 3.5 0.00 0.00 0.00 76 1013.6
20260906061602 72 0 1.7 3.5 0.00 0.00 0.00 76 1013.6
20260906061502 72 357 0.9 2.6 0.00 0.00 0.00 76 1013.6
20260906061402 72 357 1.7 2.6 0.00 0.00 0.00 76 1013.6
20260906061302 72 357 0.9 2.6 0.00 0.00 0.00 76 1013.7
20260906061203 72 357 0.9 2.6 0.00 0.00 0.00 76 1013.6
20260906061102 72 357 0.9 2.6 0.00 0.00 0.00 76 1013.6
20260906061002 72 357 0.9 2.6 0.00 0.00 0.00 76 1013.6
20260906060902 72 357 0.9 2.6 0.00 0.00 0.00 76 1013.7
20260906060802 72 357 0.9 2.6 0.00 0.00 0.00 76 1013.7
20260906060702 72 357 0.9 2.6 0.00 0.00 0.00 76 1013.7
20260906060602 72 357 1.7 2.6 0.00 0.00 0.00 76 1013.6
20260906060502 72 357 1.7 2.6 0.00 0.00 0.00 76 1013.7
20260906060402 72 357 1.7 2.6 0.00 0.00 0.00 76 1013.7
20260906060303 72 4 1.7 2.6 0.00 0.00 0.00 76 1013.7
20260906060202 72 4 0.9 2.6 0.00 0.00 0.00 76 1013.7
20260906060002 72 10 0.9 2.6 0.00 0.00 0.00 77 1013.7
20260906055902 72 10 0.0 2.6 0.00 0.00 0.00 77 1013.6
20260906055802 72 10 0.0 2.6 0.00 0.00 0.00 77 1013.7
20260906055702 72 10 0.0 2.6 0.00 0.00 0.00 77 1013.7
20260906055602 72 10 0.9 2.6 0.00 0.00 0.00 77 1013.7
20260906055502 72 10 0.9 2.6 0.00 0.00 0.00 77 1013.6
20260906055402 72 10 0.9 2.6 0.00 0.00 0.00 77 1013.6
20260906055306 72 10 0.9 2.6 0.00 0.00 0.00 77 1013.7
20260906055202 72 10 0.9 2.6 0.00 0.00 0.00 77 1013.6
20260906055103 72 10 0.9 2.6 0.00 0.00 0.00 77 1013.7
20260906055003 72 10 0.9 2.6 0.00 0.00 0.00 77 1013.6
20260906054902 72 10 0.9 2.6 0.00 0.00 0.00 77 1013.6
20260906054803 72 10 0.9 2.6 0.00 0.00 0.00 77 1013.7
20260906054702 72 10 0.9 2.6 0.00 0.00 0.00 77 1013.7
20260906054602 72 10 1.7 2.6 0.00 0.00 0.00 77 1013.7
20260906054504 72 11 1.7 2.6 0.00 0.00 0.00 77 1013.7
20260906054403 72 13 1.7 2.6 0.00 0.00 0.00 77 1013.6
20260906054302 72 23 1.7 2.6 0.00 0.00 0.00 77 1013.7
20260906054202 72 28 0.9 1.7 0.00 0.00 0.00 77 1013.6
20260906054102 72 28 0.9 1.7 0.00 0.00 0.00 77 1013.6
20260906054003 73 28 0.9 1.7 0.00 0.00 0.00 77 1013.6
20260906053902 73 28 0.9 1.7 0.00 0.00 0.00 77 1013.6
20260906053801 73 28 0.0 1.7 0.00 0.00 0.00 77 1013.4
20260906053702 73 28 0.0 1.7 0.00 0.00 0.00 77 1013.6
20260906053602 73 28 0.0 1.7 0.00 0.00 0.00 78 1013.6
20260906053503 73 28 0.0 4.3 0.00 0.00 0.00 78 1013.4
20260906053402 73 28 0.0 4.3 0.00 0.00 0.00 78 1013.6
20260906053302 73 28 0.9 4.3 0.00 0.00 0.00 78 1013.6
20260906053202 73 28 0.0 4.3 0.00 0.00 0.00 78 1013.4
20260906053103 73 28 0.0 4.3 0.00 0.00 0.00 78 1013.4
20260906053003 73 28 0.0 4.3 0.00 0.00 0.00 78 1013.4
20260906052902 73 28 0.9 4.3 0.00 0.00 0.00 78 1013.4
20260906052802 73 28 0.9 4.3 0.00 0.00 0.00 78 1013.4
20260906052702 73 28 1.7 4.3 0.00 0.00 0.00 78 1013.4
20260906052602 73 30 1.7 4.3 0.00 0.00 0.00 78 1013.4
20260906052502 73 0 0.9 2.6 0.00 0.00 0.00 78 1013.3
20260906052402 73 0 0.9 2.6 0.00 0.00 0.00 78 1013.4
20260906052305 73 0 0.9 2.6 0.00 0.00 0.00 78 1013.4
20260906052202 73 0 0.9 2.6 0.00 0.00 0.00 78 1013.4
20260906052102 73 0 0.9 2.6 0.00 0.00 0.00 78 1013.4
20260906052002 73 0 1.7 2.6 0.00 0.00 0.00 78 1013.4
20260906051903 73 0 1.7 2.6 0.00 0.00 0.00 79 1013.4
20260906051802 73 0 0.9 2.6 0.00 0.00 0.00 79 1013.4
20260906051702 73 4 0.9 1.7 0.00 0.00 0.00 79 1013.4
20260906051602 73 4 0.0 1.7 0.00 0.00 0.00 79 1013.3
20260906051502 73 4 0.0 2.6 0.00 0.00 0.00 79 1013.3
20260906051402 73 4 0.0 2.6 0.00 0.00 0.00 79 1013.3
20260906051302 73 4 0.0 2.6 0.00 0.00 0.00 79 1013.4
20260906051202 73 4 0.9 2.6 0.00 0.00 0.00 79 1013.4
20260906051102 73 4 0.9 2.6 0.00 0.00 0.00 79 1013.4
20260906051003 73 4 0.9 3.5 0.00 0.00 0.00 79 1013.4
20260906050902 73 7 0.9 3.5 0.00 0.00 0.00 79 1013.4
20260906050802 73 7 0.9 3.5 0.00 0.00 0.00 79 1013.4
20260906050703 73 8 0.9 3.5 0.00 0.00 0.00 79 1013.4
20260906050602 73 8 0.9 3.5 0.00 0.00 0.00 79 1013.4
20260906050502 73 4 0.9 4.3 0.00 0.00 0.00 79 1013.4
20260906050403 73 4 0.9 4.3 0.00 0.00 0.00 79 1013.6
20260906050303 73 4 0.9 4.3 0.00 0.00 0.00 79 1013.4
20260906050202 73 3 1.7 4.3 0.00 0.00 0.00 79 1013.3
20260906050004 73 17 2.6 4.3 0.00 0.00 0.00 79 1013.4
20260906045902 73 10 2.6 4.3 0.00 0.00 0.00 79 1013.4
20260906045802 73 16 2.6 4.3 0.00 0.00 0.00 79 1013.4
20260906045702 74 0 2.6 4.3 0.00 0.00 0.00 79 1013.4
20260906045602 74 0 2.6 4.3 0.00 0.00 0.00 79 1013.4
20260906045503 74 10 2.6 3.5 0.00 0.00 0.00 79 1013.4
20260906045402 74 347 2.6 4.3 0.00 0.00 0.00 79 1013.4
20260906045305 74 345 1.7 4.3 0.00 0.00 0.00 79 1013.4
20260906045202 74 20 1.7 4.3 0.00 0.00 0.00 79 1013.4
20260906045102 74 0 1.7 4.3 0.00 0.00 0.00 79 1013.4
20260906045002 74 0 2.6 4.3 0.00 0.00 0.00 79 1013.3
20260906044902 74 0 2.6 4.3 0.00 0.00 0.00 80 1013.3
20260906044802 74 20 1.7 4.3 0.00 0.00 0.00 80 1013.4
20260906044702 74 10 1.7 4.3 0.00 0.00 0.00 80 1013.3
20260906044603 74 10 2.6 4.3 0.00 0.00 0.00 80 1013.3
20260906044502 74 16 2.6 5.2 0.00 0.00 0.00 80 1013.3
20260906044403 74 25 1.7 5.2 0.00 0.00 0.00 80 1013.3
20260906044302 74 28 1.7 5.2 0.00 0.00 0.00 80 1013.3
20260906044202 74 13 1.7 5.2 0.00 0.00 0.00 80 1013.3
20260906044103 74 11 1.7 5.2 0.00 0.00 0.00 80 1013.3
20260906044003 74 11 2.6 5.2 0.00 0.00 0.00 80 1013.3
20260906043902 74 14 2.6 5.2 0.00 0.00 0.00 80 1013.3
20260906043803 74 0 2.6 5.2 0.00 0.00 0.00 80 1013.3
20260906043702 74 0 2.6 5.2 0.00 0.00 0.00 80 1013.3
20260906043602 74 1 2.6 5.2 0.00 0.00 0.00 80 1013.3
20260906043503 74 3 1.7 4.3 0.00 0.00 0.00 80 1013.3
20260906043402 74 0 1.7 4.3 0.00 0.00 0.00 80 1013.3
20260906043302 74 0 1.7 4.3 0.00 0.00 0.00 80 1013.3
20260906043202 74 347 1.7 4.3 0.00 0.00 0.00 80 1013.2
20260906043102 74 344 1.7 4.3 0.00 0.00 0.00 80 1013.2
20260906043003 74 358 1.7 4.3 0.00 0.00 0.00 80 1013.2
20260906042903 74 351 1.7 4.3 0.00 0.00 0.00 80 1013.2
20260906042802 74 351 0.9 4.3 0.00 0.00 0.00 80 1013.2
20260906042702 74 0 0.9 5.2 0.00 0.00 0.00 80 1013.2
20260906042602 74 358 0.9 5.2 0.00 0.00 0.00 80 1013.2
20260906042503 75 355 0.9 6.1 0.00 0.00 0.00 80 1013.1
20260906042402 75 355 0.9 6.1 0.00 0.00 0.00 80 1013.2
20260906042306 75 355 0.9 6.1 0.00 0.00 0.00 80 1013.2
20260906042202 75 357 2.6 6.1 0.00 0.00 0.00 80 1013.2
20260906042102 75 358 3.5 6.1 0.00 0.00 0.00 80 1013.2
20260906042002 75 357 2.6 7.8 0.00 0.00 0.00 80 1013.2
20260906041903 75 27 3.5 7.8 0.00 0.00 0.00 80 1013.2
20260906041802 75 27 3.5 7.8 0.00 0.00 0.00 80 1013.1
20260906041702 75 21 3.5 7.8 0.00 0.00 0.00 80 1013.1
20260906041621 75 3 2.6 7.8 0.00 0.00 0.00 80 1013.1
20260906041502 75 28 2.6 8.7 0.00 0.00 0.00 80 1013.1
20260906041403 75 7 3.5 8.7 0.00 0.00 0.00 80 1013.1
20260906041302 75 23 3.5 8.7 0.00 0.00 0.00 80 1013.1
20260906041202 75 0 3.5 8.7 0.00 0.00 0.00 80 1013.1
20260906041102 75 351 3.5 8.7 0.00 0.00 0.00 81 1013.0
20260906041002 75 28 2.6 8.7 0.00 0.00 0.00 81 1013.1
20260906040903 75 357 3.5 8.7 0.00 0.00 0.00 81 1013.1
20260906040802 75 30 4.3 8.7 0.00 0.00 0.00 81 1013.0
20260906040702 75 7 5.2 8.7 0.00 0.00 0.00 81 1013.0
20260906040602 75 6 4.3 8.7 0.00 0.00 0.00 81 1013.1
20260906040502 75 17 4.3 6.1 0.00 0.00 0.00 81 1013.0
20260906040402 75 0 3.5 6.1 0.00 0.00 0.00 81 1013.0
20260906040302 76 35 3.5 6.1 0.00 0.00 0.00 81 1013.0
20260906040202 76 21 3.5 6.1 0.00 0.00 0.00 81 1013.1
20260906040003 76 0 2.6 5.2 0.00 0.00 0.00 81 1013.1
20260906035902 76 31 2.6 5.2 0.00 0.00 0.00 81 1013.0
20260906035803 76 21 2.6 5.2 0.00 0.00 0.00 81 1013.1
20260906035703 76 20 2.6 5.2 0.00 0.00 0.00 81 1013.1
20260906035602 76 7 1.7 5.2 0.00 0.00 0.00 81 1013.0
20260906035501 76 34 1.7 5.2 0.00 0.00 0.00 81 1013.1
20260906035402 76 27 1.7 5.2 0.00 0.00 0.00 81 1013.1
20260906035305 76 30 2.6 6.1 0.00 0.00 0.00 81 1013.2
20260906035202 76 48 1.7 6.1 0.00 0.00 0.00 81 1013.2
20260906035102 76 0 1.7 6.1 0.00 0.00 0.00 81 1013.1
20260906035002 76 0 2.6 6.1 0.00 0.00 0.00 81 1013.2
20260906034902 76 0 3.5 6.1 0.00 0.00 0.00 81 1013.2
20260906034801 76 35 2.6 6.1 0.00 0.00 0.00 81 1013.1
20260906034702 76 18 1.7 6.1 0.00 0.00 0.00 81 1013.2
20260906034602 76 11 2.6 6.1 0.00 0.00 0.00 81 1013.1
20260906034502 76 3 3.5 6.1 0.00 0.00 0.00 81 1013.1
20260906034403 76 358 3.5 6.1 0.00 0.00 0.00 81 1013.1
20260906034302 76 0 3.5 6.1 0.00 0.00 0.00 81 1013.0
20260906034202 76 0 4.3 6.1 0.00 0.00 0.00 81 1013.0
20260906034102 76 4 3.5 6.1 0.00 0.00 0.00 81 1013.0
20260906034003 76 0 3.5 6.1 0.00 0.00 0.00 81 1013.0
20260906033902 76 0 3.5 6.1 0.00 0.00 0.00 81 1013.1
20260906033802 76 13 3.5 7.8 0.00 0.00 0.00 81 1013.1
20260906033702 77 357 3.5 7.8 0.00 0.00 0.00 81 1013.0
20260906033602 77 0 3.5 7.8 0.00 0.00 0.00 81 1013.0
20260906033503 77 4 2.6 7.8 0.00 0.00 0.00 81 1013.0
20260906033402 77 7 2.6 7.8 0.00 0.00 0.00 81 1013.0
20260906033303 77 8 3.5 7.8 0.00 0.00 0.00 81 1013.0
20260906033202 77 1 3.5 7.8 0.00 0.00 0.00 81 1013.0
20260906033102 77 18 3.5 7.8 0.00 0.00 0.00 81 1013.0
20260906033003 77 0 3.5 7.8 0.00 0.00 0.00 81 1013.0
20260906032902 77 20 4.3 7.8 0.00 0.00 0.00 81 1013.1
20260906032802 77 0 4.3 7.8 0.00 0.00 0.00 81 1013.0
20260906032703 77 0 3.5 7.8 0.00 0.00 0.00 81 1013.0
20260906032602 77 0 2.6 7.8 0.00 0.00 0.00 81 1013.0
20260906032502 77 20 3.5 8.7 0.00 0.00 0.00 81 1013.0
20260906032402 77 4 3.5 10.4 0.00 0.00 0.00 81 1013.0
20260906032305 77 61 3.5 10.4 0.00 0.00 0.00 81 1013.1
20260906032202 77 65 3.5 10.4 0.00 0.00 0.00 81 1012.9
20260906032102 77 41 4.3 10.4 0.00 0.00 0.00 81 1013.0
20260906032003 78 4 5.2 10.4 0.00 0.00 0.00 81 1012.9
20260906031902 78 28 3.5 10.4 0.00 0.00 0.00 81 1012.9
20260906031802 78 11 3.5 10.4 0.00 0.00 0.00 81 1013.0
20260906031703 78 4 4.3 10.4 0.00 0.00 0.00 81 1012.9
20260906031603 78 7 6.1 10.4 0.00 0.00 0.00 81 1012.9
20260906031503 78 3 6.1 10.4 0.00 0.00 0.00 81 1012.9
20260906031402 78 11 5.2 9.6 0.00 0.00 0.00 81 1012.9
20260906031302 78 8 5.2 9.6 0.00 0.00 0.00 81 1012.9
20260906031202 78 343 5.2 9.6 0.00 0.00 0.00 81 1012.9
20260906031102 78 14 5.2 9.6 0.00 0.00 0.00 81 1012.9
20260906031002 78 18 5.2 9.6 0.00 0.00 0.00 81 1012.9
20260906030902 78 45 3.5 9.6 0.00 0.00 0.00 81 1013.0
20260906030802 78 0 4.3 9.6 0.00 0.00 0.00 81 1013.0
20260906030703 78 340 6.1 9.6 0.00 0.00 0.00 81 1012.9
20260906030603 78 0 4.3 7.8 0.00 0.00 0.00 81 1012.9
20260906030501 78 7 3.5 7.8 0.00 0.00 0.00 81 1012.9
20260906030402 78 13 4.3 7.8 0.00 0.00 0.00 81 1012.9
20260906030302 78 331 5.2 7.8 0.00 0.00 0.00 81 1012.9
20260906030202 78 21 4.3 7.8 0.00 0.00 0.00 81 1012.9
20260906030002 78 357 3.5 8.7 0.00 0.00 0.00 81 1012.8
20260906025902 78 0 3.5 8.7 0.00 0.00 0.00 81 1012.9
20260906025802 79 0 3.5 10.4 0.00 0.00 0.00 81 1012.9
20260906025702 79 24 4.3 10.4 0.00 0.00 0.00 80 1012.9
20260906025602 79 357 4.3 10.4 0.00 0.00 0.00 80 1012.9
20260906025502 79 17 4.3 10.4 0.00 0.00 0.00 80 1013.0
20260906025402 79 0 4.3 10.4 0.00 0.00 0.00 80 1012.9
20260906025306 79 41 4.3 10.4 0.00 0.00 0.00 80 1012.8
20260906025202 79 24 5.2 10.4 0.00 0.00 0.00 80 1012.9
20260906025102 79 0 5.2 10.4 0.00 0.00 0.00 80 1012.9
20260906025003 79 0 6.1 10.4 0.00 0.00 0.00 80 1012.9
20260906024902 79 44 6.1 10.4 0.00 0.00 0.00 80 1012.9
20260906024802 79 0 5.2 8.7 0.00 0.00 0.00 80 1012.9
20260906024701 79 10 5.2 8.7 0.00 0.00 0.00 80 1012.8
20260906024602 79 0 5.2 8.7 0.00 0.00 0.00 80 1012.8
20260906024502 79 351 5.2 8.7 0.00 0.00 0.00 80 1012.8
20260906024403 79 330 5.2 8.7 0.00 0.00 0.00 80 1012.8
20260906024302 79 8 5.2 8.7 0.00 0.00 0.00 80 1012.8
20260906024203 79 10 4.3 8.7 0.00 0.00 0.00 80 1012.7
20260906024102 79 14 2.6 8.7 0.00 0.00 0.00 80 1012.7
20260906024003 80 0 3.5 8.7 0.00 0.00 0.00 79 1012.7
20260906023902 80 3 4.3 8.7 0.00 0.00 0.00 79 1012.7
20260906023802 80 11 4.3 8.7 0.00 0.00 0.00 79 1012.7
20260906023702 80 16 3.5 7.8 0.00 0.00 0.00 79 1012.7
20260906023602 80 34 4.3 7.8 0.00 0.00 0.00 79 1012.7
20260906023502 80 0 4.3 7.8 0.00 0.00 0.00 79 1012.7
20260906023402 80 0 4.3 7.8 0.00 0.00 0.00 79 1012.7
20260906023302 80 0 3.5 7.8 0.00 0.00 0.00 79 1012.6
20260906023202 80 0 4.3 7.8 0.00 0.00 0.00 79 1012.6
20260906023101 80 28 4.3 10.4 0.00 0.00 0.00 79 1012.6
20260906023002 80 28 5.2 11.3 0.00 0.00 0.00 79 1012.6
20260906022902 80 37 5.2 11.3 0.00 0.00 0.00 78 1012.6
20260906022802 80 8 3.5 11.3 0.00 0.00 0.00 78 1012.6
20260906022702 80 6 4.3 11.3 0.00 0.00 0.00 78 1012.6
20260906022603 80 14 5.2 11.3 0.00 0.00 0.00 78 1012.6
20260906022502 80 0 4.3 11.3 0.00 0.00 0.00 78 1012.6
20260906022402 80 13 4.3 11.3 0.00 0.00 0.00 78 1012.5
20260906022306 80 34 5.2 12.2 0.00 0.00 0.00 78 1012.5
20260906022203 80 41 5.2 12.2 0.00 0.00 0.00 78 1012.5
20260906022103 80 28 6.1 12.2 0.00 0.00 0.00 78 1012.5
20260906022003 80 27 6.1 12.2 0.00 0.00 0.00 78 1012.4
20260906021902 80 0 5.2 12.2 0.00 0.00 0.00 78 1012.5
20260906021802 81 11 4.3 12.2 0.00 0.00 0.00 78 1012.4
20260906021702 81 11 5.2 12.2 0.00 0.00 0.00 78 1012.4
20260906021602 81 0 6.1 12.2 0.00 0.00 0.00 78 1012.4
20260906021503 81 336 7.0 12.2 0.00 0.00 0.00 77 1012.3
20260906021402 81 16 5.2 12.2 0.00 0.00 0.00 77 1012.3
20260906021302 81 0 3.5 10.4 0.00 0.00 0.00 77 1012.3
20260906021202 81 0 4.3 10.4 0.00 0.00 0.00 77 1012.3
20260906021102 81 0 5.2 10.4 0.00 0.00 0.00 77 1012.3
20260906021003 81 38 4.3 10.4 0.00 0.00 0.00 77 1012.3
20260906020902 81 31 4.3 10.4 0.00 0.00 0.00 77 1012.3
20260906020802 81 0 4.3 10.4 0.00 0.00 0.00 77 1012.4
20260906020702 81 10 5.2 10.4 0.00 0.00 0.00 77 1012.2
20260906020602 81 0 5.2 10.4 0.00 0.00 0.00 77 1012.2
20260906020502 81 357 4.3 8.7 0.00 0.00 0.00 77 1012.2
20260906020403 81 0 4.3 8.7 0.00 0.00 0.00 77 1012.2
20260906020302 81 13 5.2 8.7 0.00 0.00 0.00 77 1012.1
20260906020202 81 0 5.2 8.7 0.00 0.00 0.00 77 1012.1
20260906020002 81 0 5.2 8.7 0.00 0.00 0.00 77 1012.1
20260906015902 82 0 4.3 8.7 0.00 0.00 0.00 77 1012.0
20260906015802 82 0 4.3 8.7 0.00 0.00 0.00 77 1012.1
20260906015702 82 4 5.2 8.7 0.00 0.00 0.00 76 1012.1
20260906015602 82 340 5.2 8.7 0.00 0.00 0.00 77 1012.1
20260906015503 82 357 5.2 10.4 0.00 0.00 0.00 76 1012.0
20260906015402 82 38 5.2 10.4 0.00 0.00 0.00 76 1012.1
20260906015305 82 344 4.3 10.4 0.00 0.00 0.00 77 1012.0
20260906015202 82 20 3.5 10.4 0.00 0.00 0.00 77 1012.0
20260906015102 82 14 4.3 10.4 0.00 0.00 0.00 76 1012.1
20260906015003 82 47 3.5 10.4 0.00 0.00 0.00 77 1012.1
20260906014902 82 357 3.5 10.4 0.00 0.00 0.00 76 1012.1
20260906014802 82 13 4.3 10.4 0.00 0.00 0.00 76 1012.0
20260906014703 82 357 6.1 10.4 0.00 0.00 0.00 76 1012.1
20260906014603 82 13 5.2 11.3 0.00 0.00 0.00 76 1012.0
20260906014501 82 0 4.3 11.3 0.00 0.00 0.00 77 1012.0
20260906014403 82 17 6.1 11.3 0.00 0.00 0.00 77 1012.0
20260906014302 82 7 5.2 11.3 0.00 0.00 0.00 76 1012.1
20260906014203 82 323 5.2 11.3 0.00 0.00 0.00 76 1012.0
20260906014102 82 343 6.1 11.3 0.00 0.00 0.00 76 1012.0
20260906014002 82 14 7.0 11.3 0.00 0.00 0.00 76 1012.0
20260906013903 82 32 7.0 11.3 0.00 0.00 0.00 76 1011.9
20260906013802 82 350 7.0 11.3 0.00 0.00 0.00 76 1012.0
20260906013702 82 21 6.1 11.3 0.00 0.00 0.00 77 1011.9
20260906013602 82 8 4.3 10.4 0.00 0.00 0.00 77 1011.9
20260906013502 82 23 4.3 10.4 0.00 0.00 0.00 76 1011.9
20260906013402 82 6 5.2 10.4 0.00 0.00 0.00 76 1011.9
20260906013302 82 23 6.1 10.4 0.00 0.00 0.00 76 1011.9
20260906013202 82 351 6.1 13.0 0.00 0.00 0.00 76 1012.0
20260906013102 82 331 4.3 13.0 0.00 0.00 0.00 76 1011.9
20260906013003 83 6 3.5 13.0 0.00 0.00 0.00 76 1011.9
20260906012902 83 0 5.2 13.0 0.00 0.00 0.00 76 1011.9
20260906012801 83 0 6.1 13.0 0.00 0.00 0.00 76 1011.9
20260906012702 83 0 5.2 13.0 0.00 0.00 0.00 76 1011.9
20260906012602 83 13 4.3 13.0 0.00 0.00 0.00 76 1011.9
20260906012503 83 345 4.3 13.0 0.00 0.00 0.00 76 1011.9
20260906012402 83 39 6.1 13.0 0.00 0.00 0.00 76 1011.9
20260906012305 83 24 7.0 13.0 0.00 0.00 0.00 76 1011.9
20260906012202 83 14 5.2 11.3 0.00 0.00 0.00 76 1011.8
20260906012103 83 20 5.2 11.3 0.00 0.00 0.00 76 1011.7
20260906012003 83 30 5.2 11.3 0.00 0.00 0.00 76 1011.8
20260906011902 83 336 5.2 11.3 0.00 0.00 0.00 76 1011.7
20260906011802 83 0 5.2 11.3 0.00 0.00 0.00 76 1011.7
20260906011702 83 30 5.2 11.3 0.00 0.00 0.00 76 1011.7
20260906011602 83 1 3.5 9.6 0.00 0.00 0.00 76 1011.6
20260906011503 83 7 3.5 9.6 0.00 0.00 0.00 76 1011.7
20260906011402 83 31 4.3 9.6 0.00 0.00 0.00 76 1011.7
20260906011303 83 44 5.2 9.6 0.00 0.00 0.00 76 1011.6
20260906011202 83 0 3.5 9.6 0.00 0.00 0.00 76 1011.6
20260906011102 83 6 3.5 9.6 0.00 0.00 0.00 76 1011.6
20260906011002 83 21 5.2 9.6 0.00 0.00 0.00 76 1011.5
20260906010902 83 13 6.1 9.6 0.00 0.00 0.00 75 1011.5
20260906010803 83 0 5.2 9.6 0.00 0.00 0.00 75 1011.5
20260906010702 84 32 5.2 9.6 0.00 0.00 0.00 75 1011.6
20260906010602 84 21 5.2 9.6 0.00 0.00 0.00 75 1011.5
20260906010503 84 17 3.5 9.6 0.00 0.00 0.00 75 1011.5
20260906010403 84 6 3.5 9.6 0.00 0.00 0.00 75 1011.5
20260906010302 84 17 4.3 11.3 0.00 0.00 0.00 75 1011.5
20260906010202 84 39 5.2 11.3 0.00 0.00 0.00 75 1011.5
20260906010002 84 21 6.1 11.3 0.00 0.00 0.00 75 1011.5
20260906005902 84 25 6.1 11.3 0.00 0.00 0.00 75 1011.5
20260906005803 84 7 5.2 11.3 0.00 0.00 0.00 75 1011.5
20260906005703 84 7 3.5 11.3 0.00 0.00 0.00 75 1011.5
20260906005602 84 41 5.2 11.3 0.00 0.00 0.00 75 1011.5
20260906005502 84 48 7.8 11.3 0.00 0.00 0.00 75 1011.5
20260906005402 84 357 7.8 11.3 0.00 0.00 0.00 75 1011.5
20260906005306 85 4 6.1 12.2 0.00 0.00 0.00 75 1011.5
20260906005201 85 14 5.2 12.2 0.00 0.00 0.00 75 1011.5
20260906005102 85 32 5.2 12.2 0.00 0.00 0.00 75 1011.4
20260906005002 85 28 6.1 12.2 0.00 0.00 0.00 75 1011.5
20260906004902 85 0 6.1 12.2 0.00 0.00 0.00 74 1011.5
20260906004802 85 0 7.0 12.2 0.00 0.00 0.00 74 1011.4
20260906004702 85 0 6.1 12.2 0.00 0.00 0.00 74 1011.4
20260906004602 85 0 7.0 12.2 0.00 0.00 0.00 74 1011.3
20260906004502 85 39 7.0 12.2 0.00 0.00 0.00 75 1011.3
20260906004404 85 11 6.1 12.2 0.00 0.00 0.00 75 1011.3
20260906004302 85 25 7.0 12.2 0.00 0.00 0.00 75 1011.3
20260906004202 85 0 7.8 12.2 0.00 0.00 0.00 75 1011.2
20260906004102 85 0 7.8 12.2 0.00 0.00 0.00 75 1011.2
20260906004002 86 0 7.0 12.2 0.00 0.00 0.00 76 1011.2
20260906003902 86 0 6.1 9.6 0.00 0.00 0.00 76 1011.2
20260906003802 86 288 6.1 9.6 0.00 0.00 0.00 76 1011.2
20260906003702 86 25 5.2 9.6 0.00 0.00 0.00 76 1011.2
20260906003602 86 317 5.2 11.3 0.00 0.00 0.00 76 1011.1
20260906003503 86 3 5.2 11.3 0.00 0.00 0.00 76 1011.2
20260906003402 86 4 4.3 11.3 0.00 0.00 0.00 75 1011.1
20260906003302 86 8 4.3 11.3 0.00 0.00 0.00 75 1011.1
20260906003203 86 0 4.3 11.3 0.00 0.00 0.00 75 1011.1
20260906003102 86 348 5.2 11.3 0.00 0.00 0.00 75 1011.1
20260906003002 86 0 5.2 11.3 0.00 0.00 0.00 75 1011.0
20260906002902 86 7 5.2 11.3 0.00 0.00 0.00 75 1011.0
20260906002803 86 0 7.0 11.3 0.00 0.00 0.00 74 1011.1
20260906002703 87 324 6.1 11.3 0.00 0.00 0.00 74 1011.1
20260906002602 87 341 6.1 10.4 0.00 0.00 0.00 74 1011.0
20260906002502 87 355 7.0 10.4 0.00 0.00 0.00 74 1010.9
20260906002402 87 0 6.1 9.6 0.00 0.00 0.00 74 1011.0
20260906002305 87 0 6.1 9.6 0.00 0.00 0.00 74 1011.0
20260906002202 87 18 5.2 9.6 0.00 0.00 0.00 73 1010.9
20260906002102 87 23 5.2 9.6 0.00 0.00 0.00 73 1010.9
20260906002002 87 1 5.2 9.6 0.00 0.00 0.00 73 1011.0
20260906001902 87 345 4.3 6.1 0.00 0.00 0.00 73 1011.0
20260906001802 87 357 2.6 5.2 0.00 0.00 0.00 73 1011.0
20260906001703 87 331 2.6 5.2 0.00 0.00 0.00 73 1011.0
20260906001603 87 0 2.6 5.2 0.00 0.00 0.00 73 1011.0
20260906001503 87 358 2.6 5.2 0.00 0.00 0.00 73 1011.0
20260906001402 87 0 2.6 5.2 0.00 0.00 0.00 72 1010.9
20260906001302 87 3 3.5 5.2 0.00 0.00 0.00 72 1010.9
20260906001202 88 0 3.5 5.2 0.00 0.00 0.00 72 1010.9
20260906001102 88 1 2.6 5.2 0.00 0.00 0.00 72 1010.9
20260906001003 88 0 2.6 5.2 0.00 0.00 0.00 72 1010.9
20260906000902 88 0 3.5 5.2 0.00 0.00 0.00 72 1010.9
20260906000803 88 0 3.5 8.7 0.00 0.00 0.00 72 1010.9
20260906000703 88 0 1.7 8.7 0.00 0.00 0.00 72 1011.0
20260906000602 88 0 2.6 8.7 0.00 0.00 0.00 72 1011.0
20260906000503 88 0 3.5 8.7 0.00 0.00 0.00 72 1011.0
20260906000403 88 334 3.5 8.7 0.00 0.00 0.00 71 1010.9
20260906000303 88 0 3.5 8.7 0.00 0.00 0.00 71 1011.0
20260906000204 88 351 3.5 8.7 0.00 0.00 0.00 71 1011.0
20260906000003 88 17 4.3 8.7 0.00 0.00 0.00 71 1011.0
20260905235902 88 0 3.5 8.7 0.00 0.00 0.00 71 1010.9
20260905235802 88 3 2.6 4.3 0.00 0.00 0.00 71 1011.0
20260905235702 88 357 2.6 4.3 0.00 0.00 0.00 71 1011.0
20260905235602 89 8 2.6 4.3 0.00 0.00 0.00 71 1010.9
20260905235503 89 336 1.7 4.3 0.00 0.00 0.00 71 1010.9
20260905235402 89 338 1.7 5.2 0.00 0.00 0.00 71 1010.9
20260905235306 89 0 1.7 5.2 0.00 0.00 0.00 71 1010.9
20260905235202 89 331 2.6 5.2 0.00 0.00 0.00 71 1010.8
20260905235103 89 330 2.6 5.2 0.00 0.00 0.00 71 1010.9
20260905235002 89 344 2.6 6.1 0.00 0.00 0.00 71 1010.9
20260905234902 89 347 2.6 6.1 0.00 0.00 0.00 70 1010.9
20260905234802 89 340 3.5 6.1 0.00 0.00 0.00 70 1010.9
20260905234702 89 1 2.6 6.1 0.00 0.00 0.00 70 1010.9
20260905234602 89 350 2.6 6.1 0.00 0.00 0.00 70 1010.9
20260905234502 89 348 3.5 8.7 0.00 0.00 0.00 70 1010.9
20260905234404 89 341 2.6 8.7 0.00 0.00 0.00 70 1010.9
20260905234303 89 334 3.5 8.7 0.00 0.00 0.00 70 1010.9
20260905234201 89 345 4.3 8.7 0.00 0.00 0.00 69 1010.9
20260905234102 89 338 4.3 8.7 0.00 0.00 0.00 69 1010.9
20260905234002 89 329 3.5 8.7 0.00 0.00 0.00 69 1010.9
20260905233902 89 357 2.6 8.7 0.00 0.00 0.00 69 1010.8
20260905233802 90 329 2.6 8.7 0.00 0.00 0.00 68 1010.8
20260905233702 90 338 3.5 8.7 0.00 0.00 0.00 68 1010.8
20260905233603 90 0 3.5 8.7 0.00 0.00 0.00 68 1010.7
20260905233503 90 327 2.6 6.1 0.00 0.00 0.00 68 1010.7
20260905233402 90 350 3.5 6.1 0.00 0.00 0.00 68 1010.8
20260905233302 90 7 2.6 8.7 0.00 0.00 0.00 68 1010.7
20260905233202 90 314 3.5 8.7 0.00 0.00 0.00 68 1010.7
20260905233102 90 0 3.5 8.7 0.00 0.00 0.00 68 1010.7
20260905233003 90 326 3.5 8.7 0.00 0.00 0.00 67 1010.7
20260905232902 90 337 3.5 8.7 0.00 0.00 0.00 67 1010.6
20260905232802 90 351 3.5 8.7 0.00 0.00 0.00 67 1010.7
20260905232703 90 6 3.5 8.7 0.00 0.00 0.00 67 1010.7
20260905232602 90 343 4.3 8.7 0.00 0.00 0.00 67 1010.7
20260905232502 90 324 4.3 8.7 0.00 0.00 0.00 67 1010.7
20260905232402 90 340 4.3 8.7 0.00 0.00 0.00 67 1010.7
20260905232305 90 338 3.5 7.8 0.00 0.00 0.00 67 1010.7
20260905232203 90 350 3.5 7.8 0.00 0.00 0.00 67 1010.7
20260905232102 90 357 3.5 7.8 0.00 0.00 0.00 67 1010.7
20260905232003 91 324 4.3 7.8 0.00 0.00 0.00 67 1010.6
20260905231902 91 341 5.2 7.8 0.00 0.00 0.00 66 1010.7
20260905231802 91 350 4.3 7.8 0.00 0.00 0.00 66 1010.7
20260905231701 91 309 3.5 7.8 0.00 0.00 0.00 66 1010.7
20260905231602 91 357 3.5 7.8 0.00 0.00 0.00 66 1010.7
20260905231502 91 333 3.5 7.8 0.00 0.00 0.00 66 1010.7
20260905231402 91 343 1.7 7.8 0.00 0.00 0.00 66 1010.6
20260905231302 91 347 3.5 7.8 0.00 0.00 0.00 66 1010.7
20260905231202 91 338 4.3 7.8 0.00 0.00 0.00 66 1010.7
20260905231103 91 345 3.5 7.8 0.00 0.00 0.00 65 1010.6
20260905231003 91 351 3.5 7.8 0.00 0.00 0.00 65 1010.6
20260905230902 91 324 4.3 7.8 0.00 0.00 0.00 65 1010.5
20260905230802 91 0 5.2 7.8 0.00 0.00 0.00 65 1010.7
20260905230703 91 321 4.3 7.8 0.00 0.00 0.00 65 1010.7
20260905230602 91 11 3.5 8.7 0.00 0.00 0.00 65 1010.7
20260905230502 91 343 3.5 8.7 0.00 0.00 0.00 64 1010.7
20260905230402 91 329 4.3 8.7 0.00 0.00 0.00 64 1010.7
20260905230302 92 336 4.3 8.7 0.00 0.00 0.00 65 1010.8
20260905230202 92 333 4.3 8.7 0.00 0.00 0.00 64 1010.7
20260905230003 92 11 3.5 8.7 0.00 0.00 0.00 64 1010.7
20260905225902 92 14 3.5 8.7 0.00 0.00 0.00 64 1010.7
20260905225803 92 0 3.5 8.7 0.00 0.00 0.00 64 1010.6
20260905225702 92 7 3.5 8.7 0.00 0.00 0.00 64 1010.7
20260905225602 92 0 2.6 9.6 0.00 0.00 0.00 64 1010.6
20260905225503 92 345 3.5 9.6 0.00 0.00 0.00 63 1010.6
20260905225402 92 333 3.5 9.6 0.00 0.00 0.00 63 1010.6
20260905225305 92 4 3.5 9.6 0.00 0.00 0.00 63 1010.6
20260905225202 92 330 5.2 9.6 0.00 0.00 0.00 63 1010.6
20260905225102 92 0 5.2 9.6 0.00 0.00 0.00 63 1010.5
20260905225002 92 13 3.5 9.6 0.00 0.00 0.00 63 1010.6
20260905224902 92 309 3.5 9.6 0.00 0.00 0.00 63 1010.5
20260905224802 92 348 5.2 9.6 0.00 0.00 0.00 62 1010.6
20260905224702 92 309 6.1 9.6 0.00 0.00 0.00 63 1010.5
20260905224603 92 10 5.2 7.8 0.00 0.00 0.00 62 1010.5
20260905224503 92 323 4.3 7.8 0.00 0.00 0.00 62 1010.5
20260905224403 92 343 3.5 7.8 0.00 0.00 0.00 63 1010.5
20260905224302 92 307 2.6 6.1 0.00 0.00 0.00 63 1010.5
20260905224203 92 351 1.7 6.1 0.00 0.00 0.00 62 1010.5
20260905224103 92 336 2.6 7.8 0.00 0.00 0.00 62 1010.5
20260905224002 92 283 3.5 7.8 0.00 0.00 0.00 62 1010.5
20260905223903 92 316 3.5 7.8 0.00 0.00 0.00 62 1010.5
20260905223802 92 336 3.5 7.8 0.00 0.00 0.00 62 1010.5
20260905223702 92 0 4.3 8.7 0.00 0.00 0.00 61 1010.5
20260905223602 92 348 3.5 8.7 0.00 0.00 0.00 62 1010.5
20260905223502 92 312 3.5 8.7 0.00 0.00 0.00 61 1010.4
20260905223402 92 316 3.5 8.7 0.00 0.00 0.00 61 1010.4
20260905223303 92 354 4.3 8.7 0.00 0.00 0.00 61 1010.5
20260905223201 92 303 4.3 8.7 0.00 0.00 0.00 61 1010.5
20260905223102 92 330 3.5 8.7 0.00 0.00 0.00 61 1010.5
20260905223002 92 330 2.6 8.7 0.00 0.00 0.00 61 1010.4
20260905222902 92 0 4.3 8.7 0.00 0.00 0.00 61 1010.5
20260905222802 92 331 5.2 8.7 0.00 0.00 0.00 61 1010.5
20260905222702 92 330 3.5 8.7 0.00 0.00 0.00 61 1010.5
20260905222602 93 310 1.7 8.7 0.00 0.00 0.00 61 1010.6
20260905222502 93 347 2.6 9.6 0.00 0.00 0.00 61 1010.6
20260905222402 93 341 3.5 9.6 0.00 0.00 0.00 61 1010.6
20260905222305 93 0 3.5 9.6 0.00 0.00 0.00 60 1010.5
20260905222202 93 343 5.2 9.6 0.00 0.00 0.00 60 1010.5
20260905222103 93 331 5.2 9.6 0.00 0.00 0.00 60 1010.5
20260905222003 93 0 5.2 9.6 0.00 0.00 0.00 60 1010.6
20260905221901 93 0 5.2 9.6 0.00 0.00 0.00 60 1010.6
20260905221802 93 323 5.2 9.6 0.00 0.00 0.00 60 1010.6
20260905221702 93 331 6.1 9.6 0.00 0.00 0.00 60 1010.6
20260905221602 93 14 7.0 9.6 0.00 0.00 0.00 60 1010.6
20260905221503 93 338 5.2 8.7 0.00 0.00 0.00 60 1010.6
20260905221402 93 320 3.5 7.8 0.00 0.00 0.00 61 1010.6
20260905221302 93 358 4.3 7.8 0.00 0.00 0.00 61 1010.6
20260905221202 93 1 3.5 7.8 0.00 0.00 0.00 62 1010.6
20260905221102 93 343 2.6 7.8 0.00 0.00 0.00 62 1010.6
20260905221002 93 13 1.7 7.8 0.00 0.00 0.00 62 1010.6
20260905220902 93 313 2.6 7.8 0.00 0.00 0.00 63 1010.6
20260905220802 93 313 2.6 7.8 0.00 0.00 0.00 62 1010.6
20260905220702 93 0 1.7 7.8 0.00 0.00 0.00 62 1010.5
20260905220602 93 329 3.5 7.8 0.00 0.00 0.00 61 1010.6
20260905220503 94 326 3.5 7.8 0.00 0.00 0.00 61 1010.5
20260905220403 94 0 3.5 7.8 0.00 0.00 0.00 62 1010.5
20260905220302 94 0 2.6 5.2 0.00 0.00 0.00 62 1010.4
20260905220202 94 355 1.7 4.3 0.00 0.00 0.00 64 1010.4
20260905220004 94 333 1.7 5.2 0.00 0.00 0.00 62 1010.4
20260905215902 94 355 1.7 6.1 0.00 0.00 0.00 62 1010.4
20260905215802 94 305 1.7 6.1 0.00 0.00 0.00 62 1010.5
20260905215702 94 317 0.9 6.1 0.00 0.00 0.00 61 1010.4
20260905215602 94 317 0.9 6.1 0.00 0.00 0.00 61 1010.3
20260905215503 94 317 1.7 6.1 0.00 0.00 0.00 61 1010.4
20260905215402 94 316 3.5 6.1 0.00 0.00 0.00 61 1010.4
20260905215305 94 331 3.5 6.1 0.00 0.00 0.00 60 1010.4
20260905215203 94 334 3.5 7.8 0.00 0.00 0.00 60 1010.4
20260905215103 94 321 4.3 7.8 0.00 0.00 0.00 60 1010.5
20260905215002 94 321 4.3 7.8 0.00 0.00 0.00 60 1010.5
20260905214902 94 310 2.6 7.8 0.00 0.00 0.00 61 1010.5
20260905214802 94 334 2.6 7.8 0.00 0.00 0.00 60 1010.5
20260905214702 95 299 2.6 7.8 0.00 0.00 0.00 59 1010.5
20260905214602 95 293 2.6 7.8 0.00 0.00 0.00 60 1010.5
20260905214503 95 310 2.6 7.8 0.00 0.00 0.00 60 1010.6
20260905214404 95 290 3.5 7.8 0.00 0.00 0.00 60 1010.5
20260905214301 95 7 4.3 7.8 0.00 0.00 0.00 60 1010.6
20260905214202 95 341 3.5 6.1 0.00 0.00 0.00 60 1010.7
20260905214102 95 323 2.6 6.1 0.00 0.00 0.00 59 1010.6
20260905214003 95 0 3.5 6.1 0.00 0.00 0.00 60 1010.7
20260905213902 95 336 2.6 6.1 0.00 0.00 0.00 59 1010.7
20260905213802 95 20 2.6 6.1 0.00 0.00 0.00 59 1010.7
20260905213702 95 23 3.5 6.1 0.00 0.00 0.00 60 1010.7
20260905213602 95 24 3.5 6.1 0.00 0.00 0.00 60 1010.7
20260905213503 95 44 3.5 6.1 0.00 0.00 0.00 61 1010.7
20260905213402 95 18 3.5 4.3 0.00 0.00 0.00 62 1010.7
20260905213302 95 17 3.5 5.2 0.00 0.00 0.00 62 1010.7
20260905213203 95 30 2.6 5.2 0.00 0.00 0.00 61 1010.7
20260905213102 95 1 1.7 5.2 0.00 0.00 0.00 60 1010.7
20260905213002 95 1 1.7 5.2 0.00 0.00 0.00 61 1010.7
20260905212903 94 0 1.7 5.2 0.00 0.00 0.00 62 1010.7
20260905212803 94 0 1.7 5.2 0.00 0.00 0.00 62 1010.7
20260905212701 94 0 1.7 7.8 0.00 0.00 0.00 62 1010.7
20260905212602 94 334 1.7 7.8 0.00 0.00 0.00 62 1010.7
20260905212502 95 326 3.5 7.8 0.00 0.00 0.00 61 1010.7
20260905212402 95 331 3.5 7.8 0.00 0.00 0.00 60 1010.7
20260905212305 95 343 3.5 7.8 0.00 0.00 0.00 60 1010.7
20260905212202 95 0 2.6 7.8 0.00 0.00 0.00 59 1010.6
20260905212102 95 344 1.7 7.8 0.00 0.00 0.00 58 1010.7
20260905212003 95 354 2.6 7.8 0.00 0.00 0.00 59 1010.6
20260905211903 95 355 3.5 7.8 0.00 0.00 0.00 59 1010.7
20260905211802 95 298 4.3 7.8 0.00 0.00 0.00 58 1010.6
20260905211702 95 295 2.6 5.2 0.00 0.00 0.00 59 1010.7
20260905211602 95 327 2.6 5.2 0.00 0.00 0.00 59 1010.6
20260905211502 95 326 3.5 5.2 0.00 0.00 0.00 59 1010.6
20260905211402 95 347 3.5 5.2 0.00 0.00 0.00 61 1010.7
20260905211302 95 334 2.6 4.3 0.00 0.00 0.00 60 1010.6
20260905211202 95 11 3.5 4.3 0.00 0.00 0.00 60 1010.7
20260905211103 95 10 3.5 4.3 0.00 0.00 0.00 59 1010.6
20260905211001 95 0 2.6 4.3 0.00 0.00 0.00 61 1010.6
20260905210902 94 345 1.7 4.3 0.00 0.00 0.00 62 1010.6
20260905210802 94 341 1.7 5.2 0.00 0.00 0.00 60 1010.6
20260905210702 94 354 1.7 5.2 0.00 0.00 0.00 60 1010.6
20260905210602 94 354 1.7 5.2 0.00 0.00 0.00 61 1010.6
20260905210502 94 354 2.6 5.2 0.00 0.00 0.00 61 1010.6
20260905210402 94 357 2.6 6.1 0.00 0.00 0.00 62 1010.7
20260905210303 94 0 1.7 6.1 0.00 0.00 0.00 62 1010.7
20260905210202 94 24 0.9 6.1 0.00 0.00 0.00 63 1010.7
20260905210002 94 354 2.6 6.1 0.00 0.00 0.00 63 1010.7
20260905205902 93 350 3.5 6.1 0.00 0.00 0.00 62 1010.7
20260905205801 93 0 2.6 6.1 0.00 0.00 0.00 62 1010.8
20260905205702 93 358 2.6 6.1 0.00 0.00 0.00 63 1010.8
20260905205602 93 333 4.3 6.1 0.00 0.00 0.00 63 1010.8
20260905205502 93 350 3.5 6.1 0.00 0.00 0.00 62 1010.8
20260905205402 93 323 3.5 4.3 0.00 0.00 0.00 63 1010.7
20260905205306 93 321 3.5 4.3 0.00 0.00 0.00 64 1010.8
20260905205202 92 11 2.6 4.3 0.00 0.00 0.00 63 1010.8
20260905205102 92 334 1.7 4.3 0.00 0.00 0.00 64 1010.8
20260905205003 92 331 1.7 5.2 0.00 0.00 0.00 63 1010.8
20260905204902 92 331 1.7 5.2 0.00 0.00 0.00 63 1010.7
20260905204803 92 331 1.7 5.2 0.00 0.00 0.00 63 1010.8
20260905204703 92 331 1.7 5.2 0.00 0.00 0.00 63 1010.8
20260905204601 92 331 0.9 5.2 0.00 0.00 0.00 63 1010.9
20260905204502 92 331 1.7 5.2 0.00 0.00 0.00 63 1010.8
20260905204403 92 331 1.7 5.2 0.00 0.00 0.00 63 1010.8
20260905204303 92 331 2.6 5.2 0.00 0.00 0.00 63 1010.9
20260905204201 92 334 2.6 5.2 0.00 0.00 0.00 62 1011.0
20260905204102 92 341 2.6 5.2 0.00 0.00 0.00 62 1011.0
20260905204003 93 0 1.7 7.8 0.00 0.00 0.00 62 1011.0
20260905203902 93 7 2.6 8.7 0.00 0.00 0.00 62 1011.0
20260905203803 93 329 2.6 8.7 0.00 0.00 0.00 62 1011.0
20260905203702 93 314 2.6 8.7 0.00 0.00 0.00 61 1011.1
20260905203602 93 333 2.6 8.7 0.00 0.00 0.00 61 1011.0
20260905203503 94 314 2.6 8.7 0.00 0.00 0.00 60 1011.0
20260905203402 94 314 3.5 8.7 0.00 0.00 0.00 59 1011.1
20260905203302 94 298 4.3 8.7 0.00 0.00 0.00 59 1011.0
20260905203202 95 333 4.3 8.7 0.00 0.00 0.00 58 1011.0
20260905203101 95 327 5.2 8.7 0.00 0.00 0.00 58 1011.1
20260905203000 95 7 5.2 8.7 0.00 0.00 0.00 57 1011.1
20260905202858 96 341 6.1 8.7 0.00 0.00 0.00 57 1011.0
20260905202757 96 314 5.2 8.7 0.00 0.00 0.00 57 1011.0
20260905202655 96 338 5.2 8.7 0.00 0.00 0.00 58 1011.0
20260905202553 96 3 5.2 8.7 0.00 0.00 0.00 56 1011.1
20260905202452 96 20 5.2 9.6 0.00 0.00 0.00 55 1011.1
20260905202351 96 24 5.2 9.6 0.00 0.00 0.00 56 1011.1
20260905202249 96 289 4.3 9.6 0.00 0.00 0.00 56 1011.0
20260905202147 96 355 3.5 9.6 0.00 0.00 0.00 58 1010.9
20260905202046 96 0 3.5 9.6 0.00 0.00 0.00 56 1010.9
20260905201945 96 0 3.5 9.6 0.00 0.00 0.00 55 1010.9
20260905201843 96 312 3.5 9.6 0.00 0.00 0.00 55 1011.0
20260905201741 96 18 5.2 9.6 0.00 0.00 0.00 56 1011.0
20260905201638 96 337 6.1 9.6 0.00 0.00 0.00 55 1011.1
20260905201536 96 295 5.2 9.6 0.00 0.00 0.00 55 1011.1
20260905201434 96 348 2.6 9.6 0.00 0.00 0.00 56 1011.1
20260905201333 96 300 3.5 9.6 0.00 0.00 0.00 56 1011.0
20260905201231 96 314 4.3 9.6 0.00 0.00 0.00 56 1011.0
20260905201131 96 313 5.2 9.6 0.00 0.00 0.00 55 1011.0
20260905201032 96 353 4.3 9.6 0.00 0.00 0.00 54 1011.0
20260905200931 96 357 3.5 9.6 0.00 0.00 0.00 55 1011.1
20260905200831 96 4 3.5 9.6 0.00 0.00 0.00 55 1011.1
20260905200731 96 7 4.3 9.6 0.00 0.00 0.00 55 1011.1
20260905200630 96 337 5.2 9.6 0.00 0.00 0.00 55 1011.2
20260905200531 96 0 7.0 9.6 0.00 0.00 0.00 56 1011.2
20260905200430 96 7 5.2 9.6 0.00 0.00 0.00 55 1011.3
20260905200326 96 343 3.5 8.7 0.00 0.00 0.00 56 1011.3
20260905200224 96 353 3.5 7.8 0.00 0.00 0.00 55 1011.3
20260905200123 96 320 3.5 7.8 0.00 0.00 0.00 54 1011.3
20260905200023 95 334 3.5 7.8 0.00 0.00 0.00 55 1011.2
20260905195921 95 0 3.5 7.8 0.00 0.00 0.00 56 1011.2
20260905195821 95 0 3.5 7.8 0.00 0.00 0.00 56 1011.3
20260905195721 95 316 4.3 7.8 0.00 0.00 0.00 56 1011.2
20260905195621 96 8 4.3 7.8 0.00 0.00 0.00 57 1011.3
20260905195522 96 319 3.5 7.8 0.00 0.00 0.00 57 1011.3
20260905195422 96 288 3.5 7.8 0.00 0.00 0.00 56 1011.2
20260905195321 96 247 4.3 6.1 0.00 0.00 0.00 56 1011.2
20260905195221 96 285 3.5 6.1 0.00 0.00 0.00 56 1011.2
20260905195122 96 20 1.7 6.1 0.00 0.00 0.00 57 1011.2
20260905195021 96 224 0.9 6.1 0.00 0.00 0.00 58 1011.3
20260905194921 96 224 2.6 6.1 0.00 0.00 0.00 57 1011.3
20260905194821 96 286 3.5 6.1 0.00 0.00 0.00 57 1011.3
20260905194721 96 7 3.5 6.1 0.00 0.00 0.00 56 1011.3
20260905194621 96 347 3.5 5.2 0.00 0.00 0.00 57 1011.3
20260905194521 96 310 3.5 6.1 0.00 0.00 0.00 55 1011.4
20260905194422 96 10 2.6 6.1 0.00 0.00 0.00 56 1011.4
20260905194321 96 348 2.6 6.1 0.00 0.00 0.00 56 1011.4
20260905194221 96 331 3.5 7.8 0.00 0.00 0.00 56 1011.4
20260905194122 96 17 2.6 7.8 0.00 0.00 0.00 57 1011.3
20260905194022 96 320 2.6 7.8 0.00 0.00 0.00 56 1011.3
20260905193921 96 324 1.7 7.8 0.00 0.00 0.00 54 1011.3
20260905193821 96 323 2.6 7.8 0.00 0.00 0.00 54 1011.2
20260905193721 96 320 3.5 7.8 0.00 0.00 0.00 54 1011.2
20260905193621 96 290 3.5 7.8 0.00 0.00 0.00 54 1011.2
20260905193521 96 344 3.5 7.8 0.00 0.00 0.00 54 1011.2
20260905193420 96 0 4.3 7.8 0.00 0.00 0.00 55 1011.2
20260905193320 96 323 4.3 7.8 0.00 0.00 0.00 55 1011.2
20260905193221 96 336 3.5 6.1 0.00 0.00 0.00 55 1011.1
20260905193121 96 343 2.6 6.1 0.00 0.00 0.00 55 1011.1
20260905193021 96 7 2.6 6.1 0.00 0.00 0.00 56 1011.2
20260905192921 96 10 3.5 7.8 0.00 0.00 0.00 56 1011.1
20260905192821 96 331 4.3 7.8 0.00 0.00 0.00 55 1011.2
20260905192720 96 340 4.3 7.8 0.00 0.00 0.00 56 1011.3
20260905192620 96 329 3.5 7.8 0.00 0.00 0.00 57 1011.3
20260905192520 95 326 3.5 7.8 0.00 0.00 0.00 60 1011.3
20260905192421 95 274 2.6 7.8 0.00 0.00 0.00 61 1011.4
20260905192321 95 334 0.9 7.8 0.00 0.00 0.00 63 1011.4
20260905192221 95 279 1.7 7.8 0.00 0.00 0.00 64 1011.4
20260905192121 94 279 2.6 7.8 0.00 0.00 0.00 62 1011.4
20260905192021 94 298 2.6 7.8 0.00 0.00 0.00 60 1011.4
20260905191920 94 24 2.6 5.2 0.00 0.00 0.00 60 1011.4
20260905191819 94 42 2.6 4.3 0.00 0.00 0.00 59 1011.4
20260905191720 94 42 1.7 4.3 0.00 0.00 0.00 59 1011.4
20260905191620 94 13 0.9 4.3 0.00 0.00 0.00 59 1011.5
20260905191520 94 13 1.7 4.3 0.00 0.00 0.00 59 1011.5
20260905191420 94 13 2.6 4.3 0.00 0.00 0.00 60 1011.5
20260905191320 94 41 1.7 3.5 0.00 0.00 0.00 60 1011.4
20260905191220 94 55 0.9 3.5 0.00 0.00 0.00 61 1011.5
20260905191120 94 55 1.7 3.5 0.00 0.00 0.00 61 1011.4
20260905191021 94 55 0.9 3.5 0.00 0.00 0.00 63 1011.4
20260905190921 94 55 0.0 3.5 0.00 0.00 0.00 63 1011.4
20260905190820 94 55 0.9 3.5 0.00 0.00 0.00 63 1011.4
20260905190720 94 55 1.7 3.5 0.00 0.00 0.00 64 1011.4
20260905190620 94 55 1.7 3.5 0.00 0.00 0.00 63 1011.4
20260905190520 94 55 1.7 2.6 0.00 0.00 0.00 64 1011.4
20260905190420 94 55 0.9 2.6 0.00 0.00 0.00 64 1011.4
20260905190320 94 55 0.9 2.6 0.00 0.00 0.00 64 1011.4
20260905190220 94 55 0.9 2.6 0.00 0.00 0.00 64 1011.5
20260905190120 94 31 0.9 2.6 0.00 0.00 0.00 65 1011.5
20260905190020 93 31 0.9 2.6 0.00 0.00 0.00 66 1011.5
20260905185920 93 31 0.0 2.6 0.00 0.00 0.00 66 1011.5
20260905185820 93 31 0.9 2.6 0.00 0.00 0.00 63 1011.5
20260905185720 93 31 0.9 2.6 0.00 0.00 0.00 63 1011.5
20260905185620 93 31 0.0 2.6 0.00 0.00 0.00 64 1011.7
20260905185520 93 31 0.0 2.6 0.00 0.00 0.00 63 1011.8
20260905185419 93 31 0.0 2.6 0.00 0.00 0.00 62 1011.8
20260905185320 93 31 0.9 2.6 0.00 0.00 0.00 62 1011.8
20260905185220 93 31 0.9 2.6 0.00 0.00 0.00 63 1011.8
20260905185120 93 31 0.0 1.7 0.00 0.00 0.00 63 1011.9
20260905185020 94 31 0.0 1.7 0.00 0.00 0.00 63 1011.9
20260905184920 94 31 0.0 1.7 0.00 0.00 0.00 63 1011.9
20260905184820 94 31 0.0 1.7 0.00 0.00 0.00 63 1011.8
20260905184720 94 31 0.0 1.7 0.00 0.00 0.00 62 1011.8
20260905184620 94 31 0.0 2.6 0.00 0.00 0.00 62 1011.8
20260905184519 94 31 0.0 2.6 0.00 0.00 0.00 62 1011.8
20260905184419 94 31 0.0 2.6 0.00 0.00 0.00 62 1011.9
20260905184320 95 31 0.9 3.5 0.00 0.00 0.00 62 1011.8
20260905184220 95 31 0.9 4.3 0.00 0.00 0.00 60 1011.8
20260905184120 95 31 0.0 4.3 0.00 0.00 0.00 59 1011.8
20260905184020 95 31 0.0 4.3 0.00 0.00 0.00 58 1011.9
20260905183920 95 31 0.0 4.3 0.00 0.00 0.00 58 1011.9
20260905183820 95 31 0.9 4.3 0.00 0.00 0.00 58 1012.0
20260905183719 95 31 0.9 4.3 0.00 0.00 0.00 57 1011.9
20260905183620 96 31 0.9 4.3 0.00 0.00 0.00 57 1012.0
20260905183519 96 31 1.7 4.3 0.00 0.00 0.00 57 1012.0
20260905183419 96 31 3.5 4.3 0.00 0.00 0.00 58 1012.0
20260905183319 96 30 2.6 4.3 0.00 0.00 0.00 57 1012.0
20260905183219 96 336 2.6 4.3 0.00 0.00 0.00 57 1012.0
20260905183119 96 303 2.6 4.3 0.00 0.00 0.00 57 1012.0
20260905183019 96 0 2.6 3.5 0.00 0.00 0.00 56 1012.0
20260905182919 96 0 1.7 3.5 0.00 0.00 0.00 57 1012.0
20260905182819 96 37 0.9 2.6 0.00 0.00 0.00 56 1012.0
20260905182719 96 37 1.7 2.6 0.00 0.00 0.00 56 1012.1
20260905182619 96 37 1.7 2.6 0.00 0.00 0.00 57 1012.1
20260905182519 96 41 0.9 2.6 0.00 0.00 0.00 56 1012.1
20260905182419 96 41 0.0 2.6 0.00 0.00 0.00 56 1012.2
20260905182319 96 41 0.0 2.6 0.00 0.00 0.00 58 1012.2
20260905182219 96 41 0.9 2.6 0.00 0.00 0.00 57 1012.2
20260905182119 96 41 0.0 2.6 0.00 0.00 0.00 57 1012.2
20260905182019 96 251 0.0 1.7 0.00 0.00 0.00 57 1012.2
20260905181919 96 251 0.0 1.7 0.00 0.00 0.00 57 1012.2
20260905181819 95 251 0.0 1.7 0.00 0.00 0.00 59 1012.3
20260905181719 95 251 0.0 1.7 0.00 0.00 0.00 58 1012.2
20260905181619 95 251 0.0 1.7 0.00 0.00 0.00 58 1012.3
20260905181519 95 251 0.0 1.7 0.00 0.00 0.00 57 1012.3
20260905181419 95 251 0.0 1.7 0.00 0.00 0.00 57 1012.3
20260905181319 95 251 0.0 1.7 0.00 0.00 0.00 57 1012.4
20260905181219 95 251 0.0 1.7 0.00 0.00 0.00 58 1012.3
20260905181119 95 251 0.0 2.6 0.00 0.00 0.00 59 1012.3
20260905181019 95 251 0.0 2.6 0.00 0.00 0.00 59 1012.3
20260905180919 94 251 0.0 2.6 0.00 0.00 0.00 60 1012.3
20260905180819 94 251 0.0 2.6 0.00 0.00 0.00 62 1012.4
20260905180719 94 251 0.0 2.6 0.00 0.00 0.00 62 1012.4
20260905180619 94 251 0.0 2.6 0.00 0.00 0.00 61 1012.4
20260905180519 94 251 0.0 2.6 0.00 0.00 0.00 62 1012.4
20260905180418 94 251 0.0 2.6 0.00 0.00 0.00 61 1012.4
20260905180318 94 251 0.9 2.6 0.00 0.00 0.00 61 1012.5
20260905180218 94 251 1.7 2.6 0.00 0.00 0.00 61 1012.5
20260905180118 94 251 0.9 2.6 0.00 0.00 0.00 62 1012.5
20260905180019 94 251 0.9 3.5 0.00 0.00 0.00 62 1012.5
20260905175919 94 251 1.7 3.5 0.00 0.00 0.00 59 1012.5
20260905175819 94 251 0.9 3.5 0.00 0.00 0.00 61 1012.5
20260905175719 94 251 0.0 3.5 0.00 0.00 0.00 60 1012.6
20260905175618 94 251 0.0 3.5 0.00 0.00 0.00 58 1012.5
20260905175518 94 251 0.0 3.5 0.00 0.00 0.00 58 1012.6
20260905175418 94 251 0.9 3.5 0.00 0.00 0.00 58 1012.6
20260905175318 94 251 1.7 3.5 0.00 0.00 0.00 59 1012.7
20260905175218 94 251 1.7 3.5 0.00 0.00 0.00 60 1012.7
20260905175118 94 251 1.7 3.5 0.00 0.00 0.00 59 1012.6
20260905175018 94 252 1.7 3.5 0.00 0.00 0.00 61 1012.7
20260905174918 94 269 0.9 2.6 0.00 0.00 0.00 62 1012.7
20260905174818 94 227 0.9 2.6 0.00 0.00 0.00 63 1012.6
20260905174719 94 226 0.9 3.5 0.00 0.00 0.00 62 1012.6
20260905174619 94 226 0.9 3.5 0.00 0.00 0.00 64 1012.6
20260905174519 94 226 0.9 3.5 0.00 0.00 0.00 62 1012.6
20260905174418 94 147 0.0 3.5 0.00 0.00 0.00 61 1012.6
20260905174318 94 94 0.0 3.5 0.00 0.00 0.00 62 1012.6
20260905174218 93 79 0.9 3.5 0.00 0.00 0.00 62 1012.6
20260905174118 93 0 1.7 3.5 0.00 0.00 0.00 61 1012.6
20260905174018 93 0 1.7 3.5 0.00 0.00 0.00 61 1012.6
20260905173918 93 0 1.7 3.5 0.00 0.00 0.00 61 1012.7
20260905173819 93 0 0.9 3.5 0.00 0.00 0.00 61 1012.6
20260905173718 93 331 0.0 3.5 0.00 0.00 0.00 62 1012.7
20260905173618 93 336 0.0 3.5 0.00 0.00 0.00 61 1012.7
20260905173518 93 334 0.9 3.5 0.00 0.00 0.00 61 1012.7
20260905173418 93 44 2.6 3.5 0.00 0.00 0.00 61 1012.6
20260905173318 93 220 2.6 3.5 0.00 0.00 0.00 64 1012.7
20260905173217 93 226 1.7 3.5 0.00 0.00 0.00 63 1012.6
20260905173118 93 247 1.7 3.5 0.00 0.00 0.00 63 1012.7
20260905173018 93 247 1.7 3.5 0.00 0.00 0.00 63 1012.7
20260905172918 93 245 0.9 3.5 0.00 0.00 0.00 63 1012.6
20260905172818 93 238 0.9 3.5 0.00 0.00 0.00 63 1012.6
20260905172718 93 238 0.9 3.5 0.00 0.00 0.00 62 1012.6
20260905172618 93 238 1.7 3.5 0.00 0.00 0.00 63 1012.6
20260905172518 93 258 0.9 2.6 0.00 0.00 0.00 63 1012.7
20260905172418 93 298 1.7 2.6 0.00 0.00 0.00 61 1012.7
20260905172317 93 298 1.7 2.6 0.00 0.00 0.00 62 1012.6
20260905172217 93 303 0.9 2.6 0.00 0.00 0.00 64 1012.6
20260905172117 93 307 0.9 2.6 0.00 0.00 0.00 65 1012.6
20260905172017 93 309 0.0 2.6 0.00 0.00 0.00 66 1012.6
20260905171917 93 309 0.0 2.6 0.00 0.00 0.00 66 1012.6
20260905171818 93 316 0.9 2.6 0.00 0.00 0.00 65 1012.6
20260905171718 93 292 0.0 2.6 0.00 0.00 0.00 66 1012.6
20260905171618 92 251 0.0 2.6 0.00 0.00 0.00 66 1012.6
20260905171518 92 252 0.0 2.6 0.00 0.00 0.00 67 1012.7
20260905171418 92 252 0.9 2.6 0.00 0.00 0.00 66 1012.6
20260905171317 92 252 0.9 2.6 0.00 0.00 0.00 65 1012.6
20260905171218 92 252 0.0 2.6 0.00 0.00 0.00 64 1012.6
20260905171118 92 252 0.0 2.6 0.00 0.00 0.00 65 1012.7
20260905171018 93 252 0.9 2.6 0.00 0.00 0.00 66 1012.7
20260905170917 92 252 1.7 2.6 0.00 0.00 0.00 65 1012.6
20260905170817 92 252 1.7 2.6 0.00 0.00 0.00 64 1012.7
20260905170717 92 138 1.7 2.6 0.00 0.00 0.00 66 1012.7
20260905170617 92 235 1.7 2.6 0.00 0.00 0.00 66 1012.7
20260905170518 92 237 0.9 2.6 0.00 0.00 0.00 66 1012.7
20260905170418 92 240 0.9 3.5 0.00 0.00 0.00 66 1012.8
20260905170318 92 164 0.9 3.5 0.00 0.00 0.00 66 1012.8
20260905170218 92 159 0.9 3.5 0.00 0.00 0.00 66 1012.9
20260905170118 92 238 0.0 3.5 0.00 0.00 0.00 67 1012.8
20260905170017 92 238 0.0 3.5 0.00 0.00 0.00 67 1012.8
20260905165917 92 238 0.9 3.5 0.00 0.00 0.00 66 1012.8
20260905165817 92 238 0.9 3.5 0.00 0.00 0.00 65 1012.8
20260905165717 92 238 0.9 3.5 0.00 0.00 0.00 66 1012.8
20260905165617 92 238 1.7 3.5 0.00 0.00 0.00 67 1012.8
20260905165517 92 282 1.7 3.5 0.00 0.00 0.00 65 1012.8
20260905165417 92 219 1.7 3.5 0.00 0.00 0.00 65 1012.9
20260905165314 92 216 1.7 3.5 0.00 0.00 0.00 67 1012.9
20260905165213 92 230 0.0 3.5 0.00 0.00 0.00 66 1012.8
20260905165112 92 173 0.0 3.5 0.00 0.00 0.00 65 1012.8
20260905165011 92 180 0.0 3.5 0.00 0.00 0.00 65 1012.8
20260905164908 92 180 0.9 3.5 0.00 0.00 0.00 64 1012.8
20260905164807 92 180 0.9 3.5 0.00 0.00 0.00 64 1012.8
20260905164706 92 175 0.9 3.5 0.00 0.00 0.00 65 1012.8
20260905164604 92 247 0.9 3.5 0.00 0.00 0.00 65 1012.8
20260905164504 92 219 1.7 4.3 0.00 0.00 0.00 65 1012.9
20260905164404 92 180 1.7 4.3 0.00 0.00 0.00 64 1012.8
20260905164302 92 173 1.7 4.3 0.00 0.00 0.00 65 1012.8
20260905164202 92 183 1.7 4.3 0.00 0.00 0.00 65 1012.8
20260905164102 92 214 1.7 4.3 0.00 0.00 0.00 64 1012.8
20260905164003 92 168 0.9 4.3 0.00 0.00 0.00 64 1012.8
20260905163902 92 157 0.9 4.3 0.00 0.00 0.00 64 1012.8
20260905163802 92 157 0.9 4.3 0.00 0.00 0.00 65 1012.8
20260905163702 92 142 1.7 4.3 0.00 0.00 0.00 65 1012.8
20260905163603 92 137 1.7 4.3 0.00 0.00 0.00 65 1012.9
20260905163502 92 100 0.9 4.3 0.00 0.00 0.00 64 1012.9
20260905163401 92 141 0.9 4.3 0.00 0.00 0.00 64 1012.9
20260905163302 91 147 0.9 4.3 0.00 0.00 0.00 65 1012.9
20260905163201 91 195 0.9 5.2 0.00 0.00 0.00 66 1012.9
20260905163102 91 148 0.9 5.2 0.00 0.00 0.00 65 1012.9
20260905163002 91 255 1.7 5.2 0.00 0.00 0.00 66 1012.9
20260905162902 91 148 1.7 5.2 0.00 0.00 0.00 66 1012.9
20260905162803 91 149 1.7 5.2 0.00 0.00 0.00 66 1013.0
20260905162702 91 149 0.9 5.2 0.00 0.00 0.00 66 1012.9
20260905162602 91 49 0.9 5.2 0.00 0.00 0.00 66 1013.0
20260905162503 91 102 0.9 5.2 0.00 0.00 0.00 66 1013.1
20260905162403 91 155 1.7 5.2 0.00 0.00 0.00 68 1013.1
20260905162305 90 151 1.7 5.2 0.00 0.00 0.00 67 1013.1
20260905162202 90 117 0.9 3.5 0.00 0.00 0.00 69 1013.1
20260905162102 90 166 0.9 2.6 0.00 0.00 0.00 68 1013.1
20260905162003 90 241 0.9 2.6 0.00 0.00 0.00 68 1013.2
20260905161902 90 203 0.9 2.6 0.00 0.00 0.00 67 1013.2
20260905161802 90 203 0.9 2.6 0.00 0.00 0.00 66 1013.2
20260905161702 90 216 0.0 2.6 0.00 0.00 0.00 67 1013.1
20260905161602 90 134 0.9 2.6 0.00 0.00 0.00 68 1013.1
20260905161502 90 137 0.9 2.6 0.00 0.00 0.00 67 1013.2
20260905161402 90 183 0.9 2.6 0.00 0.00 0.00 67 1013.2
20260905161302 90 158 0.9 2.6 0.00 0.00 0.00 67 1013.2
20260905161202 90 158 0.0 2.6 0.00 0.00 0.00 68 1013.2
20260905161102 90 220 0.0 2.6 0.00 0.00 0.00 69 1013.2
20260905161003 90 219 0.0 2.6 0.00 0.00 0.00 69 1013.2
20260905160902 90 210 0.0 2.6 0.00 0.00 0.00 69 1013.3
20260905160802 90 210 0.0 2.6 0.00 0.00 0.00 69 1013.3
20260905160703 90 209 0.9 3.5 0.00 0.00 0.00 68 1013.2
20260905160602 90 228 0.9 3.5 0.00 0.00 0.00 70 1013.2
20260905160503 90 186 0.9 4.3 0.00 0.00 0.00 69 1013.2
20260905160402 89 186 0.9 4.3 0.00 0.00 0.00 69 1013.3
20260905160302 89 202 0.9 4.3 0.00 0.00 0.00 68 1013.3
20260905160202 89 202 0.9 4.3 0.00 0.00 0.00 68 1013.3
20260905160002 89 121 0.9 4.3 0.00 0.00 0.00 69 1013.3
20260905155902 89 121 1.7 4.3 0.00 0.00 0.00 68 1013.2
20260905155802 89 73 1.7 4.3 0.00 0.00 0.00 69 1013.3
20260905155702 89 58 1.7 4.3 0.00 0.00 0.00 70 1013.3
20260905155602 89 56 1.7 4.3 0.00 0.00 0.00 70 1013.3
20260905155503 89 134 0.9 3.5 0.00 0.00 0.00 70 1013.3
20260905155402 89 224 0.9 3.5 0.00 0.00 0.00 70 1013.3
20260905155306 89 214 0.9 3.5 0.00 0.00 0.00 70 1013.2
20260905155203 89 214 1.7 3.5 0.00 0.00 0.00 69 1013.3
20260905155103 89 73 1.7 3.5 0.00 0.00 0.00 70 1013.3
20260905155002 89 59 0.9 3.5 0.00 0.00 0.00 70 1013.3
20260905154902 89 182 1.7 3.5 0.00 0.00 0.00 69 1013.3
20260905154802 89 202 1.7 3.5 0.00 0.00 0.00 69 1013.2
20260905154702 89 165 1.7 3.5 0.00 0.00 0.00 72 1013.2
20260905154602 89 231 0.9 3.5 0.00 0.00 0.00 71 1013.2
20260905154502 89 265 0.9 3.5 0.00 0.00 0.00 71 1013.2
20260905154403 89 240 0.9 3.5 0.00 0.00 0.00 71 1013.2
20260905154303 89 121 0.9 3.5 0.00 0.00 0.00 71 1013.1
20260905154201 88 121 1.7 5.2 0.00 0.00 0.00 70 1013.2
20260905154102 88 114 1.7 5.2 0.00 0.00 0.00 70 1013.1
20260905154002 88 154 0.9 5.2 0.00 0.00 0.00 71 1013.1
20260905153902 88 162 0.9 5.2 0.00 0.00 0.00 71 1013.0
20260905153801 88 204 0.9 6.1 0.00 0.00 0.00 71 1013.1
20260905153702 88 131 0.9 6.1 0.00 0.00 0.00 71 1013.1
20260905153602 88 159 1.7 6.1 0.00 0.00 0.00 71 1013.0
20260905153502 88 206 1.7 6.1 0.00 0.00 0.00 71 1013.1
20260905153402 88 161 1.7 6.1 0.00 0.00 0.00 72 1013.1
20260905153302 88 161 1.7 6.1 0.00 0.00 0.00 71 1013.0
20260905153202 88 134 0.9 6.1 0.00 0.00 0.00 72 1013.0
20260905153103 87 161 1.7 6.1 0.00 0.00 0.00 72 1013.0
20260905153001 87 159 2.6 6.1 0.00 0.00 0.00 72 1013.0
20260905152902 87 154 1.7 6.1 0.00 0.00 0.00 74 1012.9
20260905152802 87 189 1.7 3.5 0.00 0.00 0.00 74 1013.0
20260905152702 87 185 1.7 3.5 0.00 0.00 0.00 74 1013.1
20260905152602 87 161 1.7 3.5 0.00 0.00 0.00 73 1013.0
20260905152502 87 237 1.7 3.5 0.00 0.00 0.00 74 1013.1
20260905152402 87 243 0.9 3.5 0.00 0.00 0.00 74 1013.2
20260905152306 87 212 0.0 3.5 0.00 0.00 0.00 76 1013.2
20260905152202 87 213 0.0 3.5 0.00 0.00 0.00 77 1013.2
20260905152102 87 213 0.9 4.3 0.00 0.00 0.00 77 1013.2
20260905152003 87 212 0.9 4.3 0.00 0.00 0.00 75 1013.2
20260905151902 86 173 0.0 4.3 0.00 0.00 0.00 76 1013.2
20260905151801 86 166 0.0 4.3 0.00 0.00 0.00 76 1013.2
20260905151702 86 168 0.0 4.3 0.00 0.00 0.00 76 1013.3
20260905151602 86 168 0.9 4.3 0.00 0.00 0.00 77 1013.4
20260905151502 86 134 0.9 4.3 0.00 0.00 0.00 77 1013.4
20260905151402 85 62 1.7 4.3 0.00 0.00 0.00 77 1013.4
20260905151302 85 189 1.7 4.3 0.00 0.00 0.00 77 1013.6
20260905151202 85 147 1.7 4.3 0.00 0.00 0.00 77 1013.6
20260905151102 85 162 1.7 3.5 0.00 0.00 0.00 77 1013.7
20260905151002 85 125 0.9 3.5 0.00 0.00 0.00 77 1013.8
20260905150902 85 120 0.0 3.5 0.00 0.00 0.00 78 1013.7
20260905150802 85 120 0.9 3.5 0.00 0.00 0.00 77 1013.8
20260905150702 85 120 0.9 3.5 0.00 0.00 0.00 77 1013.7
20260905150602 85 118 0.9 3.5 0.00 0.00 0.00 78 1013.7
20260905150502 85 149 0.9 3.5 0.00 0.00 0.00 78 1013.7
20260905150402 84 155 0.9 3.5 0.00 0.00 0.00 78 1013.6
20260905150302 84 155 0.9 4.3 0.00 0.00 0.00 78 1013.6
20260905150203 84 180 0.9 4.3 0.00 0.00 0.00 79 1013.6
20260905150002 84 144 0.9 4.3 0.00 0.00 0.00 78 1013.6
20260905145902 84 145 0.9 4.3 0.00 0.00 0.00 79 1013.4
20260905145802 84 63 0.9 4.3 0.00 0.00 0.00 79 1013.4
20260905145702 83 172 0.9 4.3 0.00 0.00 0.00 79 1013.4
20260905145602 83 172 0.9 4.3 0.00 0.00 0.00 79 1013.6
20260905145503 83 173 1.7 4.3 0.00 0.00 0.00 79 1013.4
20260905145403 83 219 1.7 4.3 0.00 0.00 0.00 80 1013.4
20260905145302 83 176 0.9 5.2 0.00 0.00 0.00 79 1013.6
20260905145201 83 161 0.9 5.2 0.00 0.00 0.00 79 1013.6
20260905145103 83 161 1.7 5.2 0.00 0.00 0.00 79 1013.6
20260905145003 83 120 1.7 5.2 0.00 0.00 0.00 80 1013.6
20260905144901 83 192 0.9 5.2 0.00 0.00 0.00 80 1013.6
20260905144801 83 147 1.7 5.2 0.00 0.00 0.00 80 1013.6
20260905144702 83 137 1.7 5.2 0.00 0.00 0.00 80 1013.6
20260905144602 82 190 0.9 5.2 0.00 0.00 0.00 80 1013.6
20260905144502 82 159 1.7 5.2 0.00 0.00 0.00 80 1013.4
20260905144403 82 192 1.7 5.2 0.00 0.00 0.00 80 1013.6
20260905144302 82 141 1.7 4.3 0.00 0.00 0.00 80 1013.6
20260905144202 82 224 1.7 5.2 0.00 0.00 0.00 80 1013.6
20260905144103 82 131 1.7 5.2 0.00 0.00 0.00 80 1013.6
20260905144002 82 128 0.9 5.2 0.00 0.00 0.00 80 1013.6
20260905143902 82 97 0.0 5.2 0.00 0.00 0.00 80 1013.4
20260905143802 82 54 0.9 5.2 0.00 0.00 0.00 80 1013.4
20260905143702 82 173 0.9 5.2 0.00 0.00 0.00 80 1013.4
20260905143602 82 172 1.7 5.2 0.00 0.00 0.00 80 1013.3
20260905143502 82 171 0.9 5.2 0.00 0.00 0.00 80 1013.3
20260905143402 82 180 1.7 5.2 0.00 0.00 0.00 80 1013.3
20260905143302 82 202 1.7 5.2 0.00 0.00 0.00 79 1013.3
20260905143203 82 195 0.9 3.5 0.00 0.00 0.00 79 1013.2
20260905143102 82 221 0.0 2.6 0.00 0.00 0.00 79 1013.3
20260905143002 82 231 0.0 4.3 0.00 0.00 0.00 79 1013.2
20260905142903 81 231 0.0 4.3 0.00 0.00 0.00 79 1013.3
20260905142802 81 231 0.0 4.3 0.00 0.00 0.00 79 1013.3
20260905142702 81 231 0.0 4.3 0.00 0.00 0.00 79 1013.3
20260905142602 81 231 0.0 4.3 0.00 0.00 0.00 79 1013.3
20260905142502 81 231 0.9 4.3 0.00 0.00 0.00 79 1013.3
20260905142403 81 238 0.9 4.3 0.00 0.00 0.00 79 1013.3
20260905142305 81 223 0.9 4.3 0.00 0.00 0.00 79 1013.3
20260905142202 81 224 0.9 4.3 0.00 0.00 0.00 79 1013.4
20260905142102 81 168 0.9 4.3 0.00 0.00 0.00 79 1013.3
20260905142003 81 54 0.9 4.3 0.00 0.00 0.00 79 1013.3
20260905141902 81 168 0.9 4.3 0.00 0.00 0.00 79 1013.3
20260905141803 80 142 1.7 4.3 0.00 0.00 0.00 78 1013.3
20260905141658 80 226 1.7 4.3 0.00 0.00 0.00 78 1013.3
20260905141554 80 176 0.9 4.3 0.00 0.00 0.00 78 1013.3
20260905141453 80 125 0.9 5.2 0.00 0.00 0.00 78 1013.4
20260905141352 80 186 0.0 5.2 0.00 0.00 0.00 77 1013.3
20260905141251 80 188 0.0 5.2 0.00 0.00 0.00 78 1013.4
20260905141148 80 188 0.9 5.2 0.00 0.00 0.00 78 1013.4
20260905141047 80 179 0.9 5.2 0.00 0.00 0.00 77 1013.6
20260905140946 80 127 0.9 5.2 0.00 0.00 0.00 77 1013.4
20260905140844 80 179 0.0 5.2 0.00 0.00 0.00 77 1013.6
20260905140742 80 90 0.0 6.1 0.00 0.00 0.00 77 1013.6
20260905140641 80 90 0.9 6.1 0.00 0.00 0.00 77 1013.7
20260905140540 80 58 0.0 6.1 0.00 0.00 0.00 76 1013.7
20260905140438 80 131 0.0 6.1 0.00 0.00 0.00 76 1013.7
20260905140336 80 80 0.0 6.1 0.00 0.00 0.00 76 1013.8
20260905140235 79 73 0.0 6.1 0.00 0.00 0.00 76 1013.8
20260905140134 79 73 0.0 6.1 0.00 0.00 0.00 76 1013.7
20260905140032 79 73 0.0 6.1 0.00 0.00 0.00 76 1013.7
20260905135931 79 73 1.7 6.1 0.00 0.00 0.00 76 1013.7
20260905135831 79 73 1.7 6.1 0.00 0.00 0.00 76 1013.7
20260905135732 79 85 0.0 5.2 0.00 0.00 0.00 76 1013.7
20260905135632 79 85 0.0 5.2 0.00 0.00 0.00 76 1013.7
20260905135530 79 85 0.0 5.2 0.00 0.00 0.00 76 1013.6
20260905135431 79 85 0.0 5.2 0.00 0.00 0.00 76 1013.6
20260905135329 79 86 0.0 5.2 0.00 0.00 0.00 76 1013.6
20260905135228 79 85 0.0 5.2 0.00 0.00 0.00 76 1013.6
20260905135126 79 85 0.9 5.2 0.00 0.00 0.00 76 1013.6
20260905135024 79 86 1.7 5.2 0.00 0.00 0.00 76 1013.6
20260905134923 79 68 2.6 5.2 0.00 0.00 0.00 76 1013.6
20260905134822 79 39 0.9 5.2 0.00 0.00 0.00 75 1013.4
20260905134720 79 93 0.0 3.5 0.00 0.00 0.00 76 1013.6
20260905134619 79 90 0.0 3.5 0.00 0.00 0.00 76 1013.4
20260905134517 79 90 0.0 3.5 0.00 0.00 0.00 76 1013.4
20260905134416 79 258 0.0 0.0 0.00 0.00 0.00 76 1013.3
20260905134315 79 258 0.0 0.0 0.00 0.00 0.00 76 1013.3
20260905134213 79 258 0.0 0.0 0.00 0.00 0.00 76 1013.2
20260905134113 79 258 0.0 0.0 0.00 0.00 0.00 76 1013.1
20260905134013 79 258 0.0 0.0 0.00 0.00 0.00 76 1013.1
20260905133913 79 258 0.0 0.0 0.00 0.00 0.00 76 1013.1
20260905133813 79 258 0.0 0.0 0.00 0.00 0.00 76 1013.1
20260905133713 79 258 0.0 0.0 0.00 0.00 0.00 75 1013.0
20260905133612 79 258 0.0 0.0 0.00 0.00 0.00 75 1013.1
20260905133510 79 258 0.0 0.0 0.00 0.00 0.00 75 1013.0
20260905133408 79 258 0.0 0.0 0.00 0.00 0.00 75 1013.0
20260905133307 79 258 0.0 0.0 0.00 0.00 0.00 75 1013.0
20260905133202 79 258 0.0 0.0 0.00 0.00 0.00 75 1013.0
20260905133102 79 258 0.0 0.0 0.00 0.00 0.00 75 1013.0
20260905133002 79 258 0.0 0.0 0.00 0.00 0.00 74 1013.0
20260905132902 79 258 0.0 0.0 0.00 0.00 0.00 74 1013.0
20260905132802 79 258 0.0 0.0 0.00 0.00 0.00 74 1013.0
20260905132702 79 258 0.0 0.0 0.00 0.00 0.00 74 1013.1
20260905132603 79 258 0.0 0.0 0.00 0.00 0.00 73 1013.1
20260905132502 79 258 0.0 0.0 0.00 0.00 0.00 73 1013.1
20260905132403 79 258 0.0 0.0 0.00 0.00 0.00 73 1013.1
20260905132305 79 258 0.0 0.0 0.00 0.00 0.00 73 1013.0
20260905132202 78 258 0.0 0.0 0.00 0.00 0.00 73 1013.0
20260905132102 78 258 0.0 0.0 0.00 0.00 0.00 73 1013.0
20260905132002 78 258 0.0 0.0 0.00 0.00 0.00 73 1013.0
20260905131902 78 258 0.0 0.0 0.00 0.00 0.00 73 1013.1
20260905131802 78 258 0.0 0.0 0.00 0.00 0.00 73 1013.0
20260905131702 78 258 0.0 0.0 0.00 0.00 0.00 73 1013.1
20260905131602 78 258 0.0 0.0 0.00 0.00 0.00 73 1013.1
20260905131502 78 258 0.0 0.0 0.00 0.00 0.00 73 1013.1
20260905131402 78 258 0.0 0.0 0.00 0.00 0.00 73 1013.1
20260905131302 78 258 0.0 0.0 0.00 0.00 0.00 73 1013.0
20260905131202 78 258 0.0 0.0 0.00 0.00 0.00 73 1013.1
20260905131102 78 258 0.0 0.0 0.00 0.00 0.00 73 1013.1
20260905131002 78 258 0.0 0.0 0.00 0.00 0.00 73 1013.1
20260905130902 78 258 0.0 0.0 0.00 0.00 0.00 73 1013.0
20260905130802 78 258 0.0 0.0 0.00 0.00 0.00 72 1013.0
20260905130703 78 258 0.0 0.0 0.00 0.00 0.00 72 1013.0
20260905130602 78 258 0.0 0.0 0.00 0.00 0.00 72 1013.1
20260905130502 78 258 0.0 0.0 0.00 0.00 0.00 72 1013.0
20260905130402 78 258 0.0 0.0 0.00 0.00 0.00 72 1013.0
20260905130303 78 258 0.0 0.0 0.00 0.00 0.00 71 1013.0
20260905130202 78 258 0.0 0.0 0.00 0.00 0.00 71 1012.9
20260905130002 78 258 0.0 0.0 0.00 0.00 0.00 70 1013.0
20260905125902 77 258 0.0 0.0 0.00 0.00 0.00 70 1013.0
20260905125802 77 258 0.0 0.0 0.00 0.00 0.00 69 1013.0
20260905125702 77 258 0.0 0.0 0.00 0.00 0.00 69 1013.0
20260905125602 77 258 0.0 0.0 0.00 0.00 0.00 69 1013.0
20260905125503 77 258 0.0 0.0 0.00 0.00 0.00 69 1013.0
20260905125402 77 258 0.0 0.0 0.00 0.00 0.00 69 1013.1
20260905125305 77 258 0.0 0.0 0.00 0.00 0.00 69 1013.0
20260905125202 76 258 0.0 0.0 0.00 0.00 0.00 69 1013.1
20260905125103 76 258 0.0 0.0 0.00 0.00 0.00 69 1013.0
20260905125003 76 258 0.0 0.0 0.00 0.00 0.00 69 1013.0
20260905124902 76 258 0.0 0.0 0.00 0.00 0.00 69 1013.0
20260905124802 76 258 0.0 0.0 0.00 0.00 0.00 69 1013.0
20260905124702 76 258 0.0 0.0 0.00 0.00 0.00 69 1013.0
20260905124602 76 258 0.0 0.0 0.00 0.00 0.00 69 1013.0
20260905124504 76 258 0.0 0.0 0.00 0.00 0.00 69 1012.9
20260905124404 76 258 0.0 0.0 0.00 0.00 0.00 69 1012.9
20260905124303 76 258 0.0 0.0 0.00 0.00 0.00 69 1012.9
20260905124202 76 258 0.0 0.0 0.00 0.00 0.00 69 1012.8
20260905124102 75 258 0.0 0.0 0.00 0.00 0.00 69 1012.8
20260905124003 75 258 0.0 0.0 0.00 0.00 0.00 69 1012.8
20260905123903 75 258 0.0 0.0 0.00 0.00 0.00 69 1012.8
20260905123801 75 258 0.0 0.0 0.00 0.00 0.00 69 1012.8
20260905123702 75 258 0.0 0.0 0.00 0.00 0.00 69 1012.8
20260905123602 75 258 0.0 0.0 0.00 0.00 0.00 69 1012.8
20260905123502 75 258 0.0 0.0 0.00 0.00 0.00 69 1012.8
20260905123402 75 258 0.0 0.0 0.00 0.00 0.00 70 1012.8
20260905123302 74 258 0.0 0.0 0.00 0.00 0.00 70 1012.8
20260905123202 74 258 0.0 0.0 0.00 0.00 0.00 70 1012.8
20260905123103 74 258 0.0 0.0 0.00 0.00 0.00 70 1012.9
20260905123003 74 258 0.0 0.0 0.00 0.00 0.00 70 1012.9
20260905122902 74 258 0.0 0.0 0.00 0.00 0.00 70 1012.9
20260905122802 74 258 0.0 0.0 0.00 0.00 0.00 70 1012.9
20260905122702 74 258 0.0 0.0 0.00 0.00 0.00 70 1012.9
20260905122603 74 258 0.0 0.0 0.00 0.00 0.00 70 1012.9
20260905122502 74 258 0.0 0.0 0.00 0.00 0.00 70 1012.9
20260905122402 74 258 0.0 0.0 0.00 0.00 0.00 70 1012.9
20260905122306 74 258 0.0 0.0 0.00 0.00 0.00 70 1012.9
20260905122202 74 258 0.0 0.0 0.00 0.00 0.00 70 1012.9
20260905122102 74 258 0.0 0.0 0.00 0.00 0.00 70 1012.9
20260905122002 74 258 0.0 0.0 0.00 0.00 0.00 70 1012.9
20260905121902 74 258 0.0 0.0 0.00 0.00 0.00 70 1012.9
20260905121802 74 258 0.0 0.0 0.00 0.00 0.00 70 1012.9
20260905121702 74 258 0.0 0.0 0.00 0.00 0.00 70 1012.9
20260905121602 74 258 0.0 0.0 0.00 0.00 0.00 70 1012.9
20260905121502 74 258 0.0 0.0 0.00 0.00 0.00 70 1012.9
20260905121402 74 258 0.0 0.0 0.00 0.00 0.00 70 1012.9
20260905121302 74 258 0.0 0.0 0.00 0.00 0.00 70 1012.9
20260905121202 74 258 0.0 0.0 0.00 0.00 0.00 70 1012.8
20260905121102 74 258 0.0 0.0 0.00 0.00 0.00 70 1012.8
20260905121002 74 258 0.0 0.0 0.00 0.00 0.00 70 1012.9
20260905120902 74 258 0.0 0.0 0.00 0.00 0.00 70 1012.9
20260905120802 74 258 0.0 0.0 0.00 0.00 0.00 70 1012.9
20260905120702 74 258 0.0 0.0 0.00 0.00 0.00 70 1012.8
20260905120602 74 258 0.0 0.0 0.00 0.00 0.00 70 1012.8
20260905120503 74 258 0.0 0.0 0.00 0.00 0.00 70 1012.8
20260905120403 74 258 0.0 0.0 0.00 0.00 0.00 70 1012.8
20260905120302 74 258 0.0 0.0 0.00 0.00 0.00 70 1012.8
20260905120203 74 258 0.0 0.0 0.00 0.00 0.00 70 1012.8
20260905120004 74 258 0.0 0.0 0.00 0.00 0.00 70 1012.8
20260905115901 74 258 0.0 0.0 0.00 0.00 0.00 70 1012.8
20260905115802 74 258 0.0 0.0 0.00 0.00 0.00 70 1012.8
20260905115702 74 258 0.0 0.0 0.00 0.00 0.00 70 1012.8
20260905115602 74 258 0.0 0.0 0.00 0.00 0.00 70 1012.9
20260905115502 74 258 0.0 0.0 0.00 0.00 0.00 70 1012.8
20260905115402 74 258 0.0 0.0 0.00 0.00 0.00 70 1012.8
20260905115305 74 258 0.0 0.0 0.00 0.00 0.00 70 1012.8
20260905115202 74 258 0.0 0.0 0.00 0.00 0.00 70 1012.8
20260905115103 74 258 0.0 0.0 0.00 0.00 0.00 70 1012.9
20260905115003 74 258 0.0 0.0 0.00 0.00 0.00 70 1012.9
20260905114901 74 258 0.0 0.0 0.00 0.00 0.00 70 1012.8
20260905114803 74 258 0.0 0.0 0.00 0.00 0.00 70 1012.8
20260905114703 74 258 0.0 0.0 0.00 0.00 0.00 70 1012.8
20260905114603 74 258 0.0 0.0 0.00 0.00 0.00 70 1012.8
20260905114503 74 258 0.0 0.0 0.00 0.00 0.00 70 1012.8
20260905114404 74 258 0.0 0.0 0.00 0.00 0.00 70 1012.7
20260905114302 74 258 0.0 0.0 0.00 0.00 0.00 70 1012.7
20260905114202 74 258 0.0 0.0 0.00 0.00 0.00 70 1012.6
20260905114102 74 258 0.0 0.0 0.00 0.00 0.00 70 1012.7
20260905114003 74 258 0.0 0.0 0.00 0.00 0.00 70 1012.7
20260905113902 74 258 0.0 0.0 0.00 0.00 0.00 70 1012.6
20260905113802 74 258 0.0 0.0 0.00 0.00 0.00 70 1012.6
20260905113703 74 258 0.0 0.0 0.00 0.00 0.00 70 1012.6
20260905113601 74 258 0.0 0.0 0.00 0.00 0.00 70 1012.7
20260905113502 74 258 0.0 0.0 0.00 0.00 0.00 70 1012.7
20260905113402 74 258 0.0 0.0 0.00 0.00 0.00 70 1012.7
20260905113302 74 258 0.0 0.0 0.00 0.00 0.00 70 1012.7
20260905113202 74 258 0.0 0.0 0.00 0.00 0.00 70 1012.7
20260905113102 74 258 0.0 0.0 0.00 0.00 0.00 70 1012.7
20260905113003 74 258 0.0 0.0 0.00 0.00 0.00 70 1012.7
20260905112902 74 258 0.0 0.0 0.00 0.00 0.00 70 1012.7
20260905112802 74 258 0.0 0.0 0.00 0.00 0.00 70 1012.8
20260905112702 74 258 0.0 0.0 0.00 0.00 0.00 70 1012.7
20260905112602 74 258 0.0 0.0 0.00 0.00 0.00 70 1012.8
20260905112503 74 258 0.0 0.0 0.00 0.00 0.00 70 1012.8
20260905112402 74 258 0.0 0.0 0.00 0.00 0.00 70 1012.8
20260905112305 74 258 0.0 0.0 0.00 0.00 0.00 70 1012.7
20260905112202 74 258 0.0 0.0 0.00 0.00 0.00 70 1012.7
20260905112103 74 258 0.0 0.0 0.00 0.00 0.00 70 1012.7
20260905112002 74 258 0.0 0.0 0.00 0.00 0.00 70 1012.7
20260905111902 74 258 0.0 0.0 0.00 0.00 0.00 70 1012.7
20260905111803 74 258 0.0 0.0 0.00 0.00 0.00 70 1012.8
20260905111702 74 258 0.0 0.0 0.00 0.00 0.00 70 1012.8
20260905111601 74 258 0.0 0.0 0.00 0.00 0.00 70 1012.8
20260905111500 74 258 0.0 0.0 0.00 0.00 0.00 70 1012.7
20260905111359 74 258 0.0 0.0 0.00 0.00 0.00 70 1012.7
20260905111256 74 258 0.0 0.0 0.00 0.00 0.00 70 1012.7
20260905111155 74 258 0.0 0.0 0.00 0.00 0.00 70 1012.7
20260905111054 74 258 0.0 0.0 0.00 0.00 0.00 70 1012.7
20260905110947 74 258 0.0 0.0 0.00 0.00 0.00 70 1012.7
20260905110845 74 258 0.0 0.0 0.00 0.00 0.00 70 1012.6
20260905110738 74 258 0.0 0.0 0.00 0.00 0.00 70 1012.6
20260905110635 74 258 0.0 0.0 0.00 0.00 0.00 70 1012.6
20260905110533 74 258 0.0 0.0 0.00 0.00 0.00 70 1012.6
20260905110432 74 258 0.0 0.0 0.00 0.00 0.00 70 1012.6
20260905110331 74 258 0.0 0.0 0.00 0.00 0.00 70 1012.6
20260905110231 74 258 0.0 0.0 0.00 0.00 0.00 70 1012.6
20260905110131 74 258 0.0 0.0 0.00 0.00 0.00 70 1012.6
20260905110028 74 258 0.0 0.0 0.00 0.00 0.00 70 1012.6
20260905105928 74 258 0.0 0.0 0.00 0.00 0.00 70 1012.6
20260905105826 74 258 0.0 0.0 0.00 0.00 0.00 70 1012.6
20260905105725 74 258 0.0 0.0 0.00 0.00 0.00 70 1012.6
20260905105623 74 258 0.0 0.0 0.00 0.00 0.00 70 1012.6
20260905105521 74 258 0.0 0.0 0.00 0.00 0.00 70 1012.6
20260905105417 74 258 0.0 0.0 0.00 0.00 0.00 71 1012.6
20260905105315 74 258 0.0 0.0 0.00 0.00 0.00 70 1012.6
20260905105214 74 258 0.0 0.0 0.00 0.00 0.00 71 1012.6
20260905105110 74 258 0.0 0.0 0.00 0.00 0.00 71 1012.5
20260905105008 74 258 0.0 0.0 0.00 0.00 0.00 71 1012.5
20260905104908 74 258 0.0 0.0 0.00 0.00 0.00 71 1012.6
20260905104808 74 258 0.0 0.0 0.00 0.00 0.00 70 1012.5
20260905104708 74 258 0.0 0.0 0.00 0.00 0.00 70 1012.5
20260905104608 74 258 0.0 0.0 0.00 0.00 0.00 70 1012.5
20260905104508 74 258 0.0 0.0 0.00 0.00 0.00 70 1012.5
20260905104408 74 258 0.0 0.0 0.00 0.00 0.00 70 1012.5
20260905104309 74 258 0.0 0.0 0.00 0.00 0.00 70 1012.5
20260905104209 74 258 0.0 0.0 0.00 0.00 0.00 70 1012.5
20260905104108 74 258 0.0 0.0 0.00 0.00 0.00 70 1012.5